GFSWCAN_500_spd_000.txt.gz
Wind_Speed
49 49 50 52 51 51 52 50 51 56 56 53 52 51 46 46 48 48 46 46 45 48 46 42 43 41 39 40 46 50 51 49 49 50 53 53 58 56 58 54 52 52 54 56 58 61 64 63 64 65 69 71 71 70
55 49 50 53 54 53 49 48 51 52 49 48 45 46 47 45 46 47 50 53 56 56 54 49 48 42 45 46 48 55 57 54 57 55 52 56 56 59 56 60 54 58 57 58 57 64 61 62 66 69 68 68 70 70
65 60 54 54 56 54 51 52 50 50 48 46 46 47 48 46 45 46 47 47 51 54 55 54 50 45 50 49 51 54 55 54 55 53 55 57 59 57 58 62 62 63 61 63 64 63 66 68 68 67 66 67 69 69
59 54 56 60 60 57 57 56 55 53 53 51 50 49 49 48 50 49 49 49 52 53 55 53 53 49 45 47 49 50 49 52 55 52 57 61 62 62 66 64 66 65 61 61 67 65 66 65 65 65 66 66 66 68
52 55 52 54 59 59 54 55 55 58 58 56 52 52 55 54 51 52 52 53 52 52 56 56 54 54 49 49 51 53 54 53 54 57 59 59 59 57 62 65 68 59 57 57 64 63 66 65 65 64 64 64 67 68
52 53 54 53 53 53 51 51 52 56 57 56 56 56 55 54 55 56 55 57 55 53 58 58 58 56 56 55 55 53 53 53 54 57 58 58 58 60 64 70 59 51 56 61 67 67 68 66 64 64 65 66 67 69
58 57 56 57 58 56 56 55 54 55 55 53 52 53 51 54 52 54 57 60 58 55 56 60 64 63 63 61 57 58 54 53 52 55 57 58 59 61 65 68 52 59 62 63 65 66 65 61 63 62 63 64 64 65
60 58 57 57 56 57 57 56 55 55 55 55 56 52 50 49 51 55 57 58 56 55 57 59 66 65 65 65 62 61 60 59 62 62 60 58 58 63 66 58 63 65 65 64 60 58 59 60 59 61 61 64 65 64
63 61 60 58 57 57 58 58 56 55 55 55 54 53 53 52 52 55 57 56 54 56 59 62 62 61 65 64 61 62 67 70 71 69 68 69 67 68 64 68 68 65 64 61 59 56 58 61 61 62 66 65 63 62
64 64 62 60 60 59 60 61 61 60 59 59 57 56 59 59 59 57 58 58 57 59 60 59 57 59 60 64 68 70 72 74 75 72 74 73 71 69 70 72 70 65 64 61 62 61 63 63 65 66 66 62 59 58
68 66 65 64 63 62 61 60 60 59 58 59 58 57 58 59 61 62 64 64 60 61 61 59 59 59 61 65 69 75 76 75 76 73 74 75 74 74 73 66 63 64 66 66 66 66 69 70 69 69 64 60 57 54
64 64 64 64 64 63 62 61 61 60 59 59 59 58 58 58 60 61 62 65 68 68 66 63 62 64 66 69 70 71 72 75 77 76 77 77 70 68 62 59 63 63 64 65 66 69 71 68 66 62 60 55 51 51
58 60 62 63 62 62 63 63 62 61 60 59 59 59 58 58 59 59 60 62 64 66 68 68 68 67 67 68 70 72 70 70 69 67 62 53 50 58 59 65 63 63 65 68 69 74 71 69 62 58 53 48 47 47
49 52 54 55 55 55 54 55 54 54 54 55 57 59 57 57 60 56 54 53 55 57 60 62 64 64 65 63 58 58 60 59 53 52 46 47 55 65 71 69 66 67 69 70 71 68 64 60 53 48 44 43 45 45
41 42 43 44 43 43 43 43 44 45 45 47 48 50 51 52 48 46 48 49 51 54 55 56 57 57 56 55 56 58 60 62 61 58 58 60 63 66 68 68 67 67 64 60 58 56 52 48 44 42 43 42 42 42
39 40 41 41 41 41 42 43 43 43 43 44 43 40 40 42 44 46 48 50 51 53 53 52 52 54 54 57 59 60 62 63 57 55 59 65 67 66 63 62 60 57 54 51 48 44 41 39 40 40 39 41 40 38
35 37 38 39 40 41 42 42 42 44 45 41 37 40 44 46 49 51 52 52 53 52 51 52 55 56 58 62 61 58 56 55 57 59 61 61 58 55 54 53 51 48 45 40 35 37 36 39 38 37 40 39 36 33
30 30 32 33 35 36 37 39 41 43 40 40 42 43 46 47 46 45 47 49 50 51 53 54 56 57 59 59 56 53 54 56 58 58 55 52 51 50 49 47 43 40 35 30 36 35 33 33 35 37 36 33 30 35
32 32 33 34 35 36 38 39 41 41 40 40 39 41 42 41 41 45 49 51 50 51 51 52 56 55 54 53 52 52 52 53 55 52 49 45 44 42 40 39 36 33 28 35 35 31 31 33 32 30 28 29 34 33
30 31 32 33 33 35 36 37 36 37 37 36 37 40 42 43 45 45 45 46 48 50 52 54 53 52 54 53 54 55 53 52 53 50 41 39 39 37 34 30 30 28 33 33 27 27 28 27 25 27 30 31 30 30
27 28 29 30 31 34 36 36 37 38 39 40 41 42 40 38 38 39 41 46 49 51 53 52 53 53 55 57 57 57 55 53 50 49 44 37 33 30 26 26 25 27 24 22 23 23 25 27 26 28 28 27 27 28
27 28 28 28 29 30 32 32 30 29 30 29 30 32 34 36 37 39 44 47 48 48 50 52 54 57 61 61 59 59 58 52 47 44 40 32 29 23 21 23 23 22 21 21 23 28 28 25 26 25 26 25 25 25
28 27 26 26 27 30 31 28 26 26 29 30 32 34 34 35 38 42 46 47 46 43 49 53 53 51 49 44 41 39 38 41 39 36 29 29 27 23 19 22 23 22 22 25 28 32 28 25 24 25 25 23 23 24
27 28 30 32 34 35 33 32 31 31 32 32 33 35 35 36 38 41 42 37 37 43 44 43 41 38 33 31 30 27 26 31 30 26 26 27 27 30 26 26 30 30 28 27 28 27 23 24 25 25 24 24 23 23
32 35 36 37 35 35 34 32 30 31 30 27 26 25 23 29 34 37 33 27 35 36 34 34 32 26 26 23 20 20 21 20 21 23 25 26 27 29 33 34 33 30 27 26 24 23 24 25 26 25 24 24 24 23
39 40 40 36 33 31 29 26 22 18 19 20 20 21 24 29 31 29 29 33 34 33 32 30 24 13 21 27 21 15 7 10 24 24 23 23 23 25 26 27 27 26 25 24 23 23 25 26 28 26 25 26 27 26
40 38 35 33 29 22 18 15 19 21 21 21 20 23 26 32 32 32 33 33 30 27 22 21 21 20 21 20 20 15 11 16 25 22 19 19 19 19 21 21 21 22 23 23 24 25 26 28 28 26 26 28 29 30
27 23 17 14 16 20 22 22 19 18 19 22 25 26 30 31 32 34 33 26 23 22 20 19 19 19 20 18 16 16 19 22 20 19 19 19 18 17 17 18 20 22 24 26 26 25 26 27 27 27 28 30 32 33
24 21 23 21 21 23 24 24 21 21 24 26 28 31 30 26 28 27 23 23 21 20 21 20 20 18 15 15 16 17 17 18 15 18 18 19 19 20 20 20 22 22 22 22 24 26 27 28 29 30 31 32 33 34
17 18 21 21 21 16 16 26 26 25 27 30 32 33 28 28 28 24 26 28 27 24 23 23 21 17 15 15 17 18 19 20 20 19 19 18 18 17 16 17 19 21 23 25 26 27 29 31 33 34 34 35 35 36
23 25 24 22 16 13 18 23 27 28 28 28 30 32 29 28 27 29 29 26 27 26 24 23 21 18 18 19 19 19 19 19 19 18 16 16 18 19 21 23 24 26 28 29 31 34 35 37 38 38 38 38 38 37
25 24 26 25 21 22 23 23 23 25 25 25 24 24 24 26 27 27 28 31 27 25 23 23 23 21 20 21 21 21 20 19 18 18 19 22 24 25 27 28 29 32 34 36 38 39 40 41 40 39 38 38 37 37
32 31 30 30 27 26 26 28 28 27 25 24 23 25 27 29 31 32 28 24 21 20 22 23 23 21 20 22 22 21 21 22 23 23 24 26 27 29 31 33 35 37 39 41 42 43 43 42 40 38 36 36 36 36

GFSWCAN_500_spd_003.txt.gz
Wind_Speed
55 52 51 51 55 60 63 61 56 58 63 63 58 60 60 60 60 56 51 52 49 51 45 41 42 39 41 40 44 47 49 48 50 52 56 56 59 58 58 56 55 55 56 59 59 62 66 64 63 58 64 68 69 69
61 55 52 48 50 55 57 64 68 67 62 57 57 61 60 61 59 54 49 49 50 50 51 48 48 41 48 53 54 56 58 56 54 56 58 60 59 58 57 58 52 56 56 59 59 63 61 61 60 64 65 66 64 68
66 61 57 56 54 54 51 52 53 54 52 52 53 53 53 51 50 47 44 45 48 49 50 47 45 44 46 47 53 52 53 53 56 56 57 60 61 58 57 60 61 61 58 59 55 57 59 61 61 62 63 66 67 70
68 67 63 60 58 55 53 52 53 53 52 52 51 50 49 49 48 46 46 45 47 50 52 52 49 46 47 49 49 51 53 52 51 49 52 58 61 63 62 63 64 63 62 60 60 59 62 62 60 64 65 69 71 72
68 69 65 65 61 59 58 56 55 54 52 51 50 50 49 49 48 48 48 47 47 50 55 55 57 54 52 51 51 53 53 53 52 54 56 57 60 60 62 64 65 60 56 56 56 59 61 63 65 67 70 71 73 74
71 69 74 74 66 66 61 56 56 54 53 55 53 51 50 49 48 45 49 51 51 51 54 57 61 60 57 57 56 54 55 56 54 52 57 61 57 58 62 67 64 55 55 55 61 61 64 68 70 73 77 75 73 72
56 60 66 76 76 69 61 58 53 54 56 57 56 54 54 51 50 50 53 55 51 51 52 56 60 63 62 63 60 56 52 48 54 59 60 62 61 61 65 68 53 57 61 64 64 66 69 70 74 74 72 68 67 68
54 54 55 57 63 61 60 53 51 49 48 48 47 47 46 48 48 50 53 52 51 52 52 55 59 64 64 65 64 61 61 60 61 61 65 65 62 68 72 63 64 64 65 66 68 70 71 71 69 65 63 65 65 68
51 51 53 53 51 52 52 48 48 50 50 50 50 49 49 50 50 50 51 51 51 54 57 59 60 63 62 63 63 61 61 64 65 67 65 67 66 71 67 70 69 67 70 73 73 65 60 58 62 61 62 64 66 70
54 53 52 50 49 51 51 50 49 49 50 50 51 51 52 52 51 51 50 52 57 59 61 59 60 61 61 61 63 64 65 66 69 66 69 72 71 72 72 75 75 78 79 75 62 59 61 64 65 66 68 71 72 71
59 58 57 56 56 55 54 54 53 52 52 53 53 53 53 52 53 54 55 57 61 64 65 64 64 64 63 63 63 64 66 69 71 70 73 76 76 76 78 78 78 72 67 65 65 65 68 72 74 74 74 72 70 63
63 62 62 61 60 59 58 57 57 55 55 55 55 54 55 56 56 56 56 59 62 65 64 63 63 65 65 66 68 70 71 74 76 77 77 78 76 70 73 72 66 67 67 67 69 71 75 78 76 73 70 66 59 53
64 62 61 60 60 60 60 59 59 58 57 57 57 57 57 57 58 59 58 59 59 60 61 62 63 64 65 68 70 70 72 73 73 73 73 73 54 62 59 60 60 61 68 71 75 77 75 72 69 64 59 54 50 45
59 60 60 58 60 61 61 60 61 61 60 60 59 58 58 59 62 61 60 60 61 63 64 65 66 66 66 66 66 67 68 67 64 63 61 56 60 61 66 70 71 70 70 70 69 68 64 62 57 52 49 46 42 42
41 44 47 50 51 53 54 54 55 57 57 56 56 56 58 60 60 59 59 59 59 60 61 62 63 63 62 61 60 60 63 68 70 65 58 56 60 61 64 64 64 65 65 63 58 55 53 53 48 45 43 40 41 42
37 36 37 40 43 46 47 49 50 51 51 50 53 55 56 54 52 52 53 55 56 56 56 56 56 57 59 60 62 65 66 65 58 58 56 60 65 65 63 59 57 59 56 54 53 51 47 44 39 36 37 38 39 40
35 37 39 40 41 42 42 42 44 45 47 48 47 46 44 47 48 50 52 54 54 54 54 55 57 58 58 61 61 59 58 57 58 60 59 60 59 57 54 51 52 52 50 48 45 43 41 33 33 36 35 37 39 38
34 35 35 36 37 39 40 42 44 45 44 43 43 44 46 49 50 50 51 53 54 55 57 57 57 56 57 58 57 56 56 58 59 59 58 56 55 53 51 49 46 45 43 39 38 37 30 31 34 32 31 35 35 30
29 30 31 32 32 33 35 37 39 40 40 40 41 43 47 47 49 51 52 53 53 53 53 52 56 55 53 53 54 55 56 57 58 59 57 55 55 53 49 46 42 40 38 35 34 29 30 32 28 28 31 30 27 29
28 29 30 31 33 34 36 37 37 39 40 40 42 45 47 47 47 48 50 51 52 52 53 55 53 51 51 51 54 55 56 57 59 61 58 54 53 50 46 43 39 37 30 29 29 29 27 25 26 26 28 28 28 30
29 29 29 30 31 31 32 32 34 35 36 37 39 41 42 42 43 46 48 51 54 54 51 49 48 48 51 52 52 55 56 59 61 63 64 60 52 45 40 37 35 30 26 25 25 26 25 24 27 28 26 27 28 27
26 26 26 27 28 29 30 31 33 34 36 36 36 37 38 38 39 40 43 45 46 44 46 47 50 51 52 51 49 52 55 57 55 52 47 42 37 33 31 30 29 27 24 23 25 25 25 27 31 31 25 27 27 29
23 24 26 28 30 32 31 31 32 30 29 27 28 31 33 35 37 40 43 41 42 43 44 47 45 45 47 46 45 47 47 48 42 36 31 26 23 23 24 25 26 27 25 24 25 26 30 31 29 25 24 27 29 29
28 29 30 31 31 33 31 29 26 25 26 27 30 33 34 37 39 41 41 40 33 36 40 39 40 42 42 41 42 36 30 30 24 19 19 18 17 19 21 24 25 27 30 29 29 29 29 28 25 25 27 29 29 30
31 32 32 31 29 30 28 28 27 28 29 30 33 34 34 35 36 37 33 23 28 28 29 34 36 38 37 31 26 27 26 21 11 7 12 18 19 19 21 23 24 25 25 28 30 27 25 23 24 26 28 29 31 30
33 34 34 32 32 32 31 31 31 29 30 32 33 28 26 30 31 34 25 28 28 29 32 33 31 29 26 24 22 25 25 15 6 10 16 23 25 20 19 20 20 21 22 23 23 24 23 25 25 26 28 30 30 28
37 36 34 33 34 32 32 32 33 33 29 25 23 27 27 30 33 31 32 30 29 29 28 28 28 22 21 18 20 20 18 15 20 14 20 24 22 17 16 16 17 17 18 20 21 22 23 24 26 28 28 26 26 27
32 30 31 31 29 26 24 24 23 23 24 25 26 27 29 30 30 31 29 26 27 25 23 25 26 23 19 19 19 17 16 15 17 22 23 18 17 16 16 16 17 18 20 22 23 25 26 26 26 27 28 28 29 30
26 19 20 21 23 24 21 20 21 20 23 29 32 30 30 30 29 29 28 29 27 25 23 25 27 28 24 21 21 20 18 18 18 18 18 18 22 22 20 20 20 20 20 20 21 22 23 25 27 27 29 30 32 34
18 20 20 19 22 20 17 21 18 17 20 28 33 35 33 29 31 31 30 30 29 29 30 27 27 27 23 21 21 22 22 21 20 20 20 22 23 23 20 17 17 18 19 21 22 24 27 29 29 31 34 36 37 38
25 24 23 24 22 19 23 26 28 27 23 24 26 29 30 30 30 29 28 25 25 26 27 28 29 25 22 21 21 21 23 22 22 22 21 20 20 21 20 19 20 21 23 26 28 30 31 32 35 38 40 41 41 39
30 30 30 29 26 25 28 28 28 28 27 25 23 25 25 24 21 15 16 20 23 26 29 28 24 21 22 22 21 20 21 22 22 23 23 22 21 21 22 25 30 32 33 34 35 35 37 40 42 43 44 43 41 37
33 33 33 33 32 30 29 32 35 33 31 31 29 27 25 24 24 22 23 25 26 25 24 22 22 23 23 22 23 23 23 23 23 24 26 27 27 28 29 30 32 34 35 37 39 40 42 44 45 45 43 39 36 34

GFSWCAN_500_spd_006.txt.gz
Wind_Speed
55 63 73 71 64 64 67 67 64 59 53 53 53 51 51 52 50 49 46 48 53 54 48 53 49 46 42 44 41 41 47 46 48 51 54 55 53 53 53 52 50 52 52 51 55 57 57 56 56 52 55 60 65 64
57 58 56 56 55 59 59 57 60 57 59 60 56 54 53 52 56 57 54 54 57 55 55 51 48 40 41 42 42 46 51 51 54 52 51 54 56 56 54 54 48 53 53 53 53 57 50 51 56 59 56 58 63 68
65 64 59 53 50 50 50 53 57 58 58 60 61 58 57 56 59 57 58 55 56 56 54 48 43 43 43 41 43 43 42 44 48 48 48 54 57 56 58 59 59 62 54 56 58 53 57 59 58 58 58 63 65 64
71 66 62 61 54 47 51 51 52 53 55 55 54 54 57 61 63 61 54 52 53 50 47 44 43 41 40 42 43 46 49 44 41 44 48 55 57 58 59 60 63 61 57 55 65 64 64 61 61 61 62 62 70 70
72 66 67 63 61 55 52 50 48 49 47 51 55 55 52 50 48 49 50 49 49 48 49 49 48 42 40 43 46 47 47 50 51 53 53 55 57 59 60 63 65 59 60 63 69 67 70 68 66 68 68 68 73 79
73 70 70 64 64 60 60 61 53 51 53 54 52 49 47 46 44 42 44 45 43 41 45 52 52 51 45 46 48 49 50 50 51 50 53 56 54 58 61 66 64 56 59 63 67 67 66 67 66 67 70 74 79 78
69 74 70 65 69 65 65 65 60 57 59 59 56 54 51 48 45 46 51 50 45 44 45 48 55 55 55 52 54 53 51 52 54 53 56 58 59 61 67 70 56 59 61 63 64 69 71 71 75 74 73 69 63 68
64 65 71 70 61 63 67 67 65 64 64 62 60 56 54 53 52 52 52 56 57 49 53 55 57 62 62 59 57 59 58 58 59 59 63 63 60 65 70 60 61 60 64 67 71 73 74 74 71 68 64 56 59 64
51 53 57 63 68 64 57 68 71 69 63 59 54 50 48 51 52 50 50 50 51 53 57 56 54 57 58 58 59 60 63 65 64 64 64 66 69 71 65 65 68 69 71 73 75 74 72 73 71 66 64 62 65 70
50 48 47 49 52 54 57 61 59 60 62 65 60 56 55 51 50 48 50 53 54 57 57 57 56 55 57 57 59 62 65 68 71 68 68 71 72 72 70 71 72 72 74 76 75 72 66 66 63 65 65 66 71 81
46 46 46 43 45 48 49 50 53 52 49 48 49 50 49 48 50 51 52 54 56 58 59 57 58 59 57 60 64 69 72 72 74 72 75 76 74 71 73 72 74 74 75 73 74 70 66 64 67 72 76 80 80 76
48 46 46 44 43 43 44 45 45 46 46 47 50 48 48 49 50 51 53 55 56 58 59 58 58 61 63 66 68 70 73 77 75 72 73 74 71 70 70 73 71 71 70 71 68 65 65 69 75 77 76 74 69 63
55 53 50 47 47 48 47 47 47 47 47 48 49 49 50 52 55 56 56 57 56 55 56 57 59 60 62 64 66 67 68 69 68 70 71 72 64 65 66 66 65 65 71 70 70 71 71 71 71 70 65 61 57 54
57 59 57 56 54 53 53 53 54 53 53 54 54 54 54 55 57 58 59 57 57 58 59 61 61 62 62 63 65 66 66 69 71 72 69 59 58 61 64 67 67 68 67 66 67 69 68 64 60 58 57 53 50 48
50 53 54 56 57 57 56 56 56 55 54 55 55 55 57 57 57 55 55 56 58 59 60 61 63 64 63 62 61 64 66 68 68 62 55 51 54 60 63 64 64 65 64 62 61 61 59 56 54 53 50 47 41 35
38 41 42 42 46 48 49 51 53 52 52 50 53 56 57 56 53 52 53 55 57 58 58 59 59 60 60 60 62 63 62 58 54 53 55 61 62 63 66 66 64 60 58 57 56 55 52 49 47 48 44 38 33 38
27 28 31 33 34 36 39 40 41 44 48 51 51 49 48 49 50 50 51 53 54 55 56 57 57 56 58 60 58 56 57 57 58 60 61 62 62 63 61 60 58 58 58 55 54 51 48 45 44 39 35 31 35 33
26 28 29 31 32 33 34 36 39 41 42 42 42 42 43 45 47 50 51 53 54 54 56 57 57 55 55 54 54 55 57 59 61 63 62 60 60 60 61 62 61 61 59 55 52 48 44 42 38 31 30 32 30 30
29 30 29 30 32 33 35 38 38 39 39 39 40 40 43 46 48 50 52 53 54 54 55 55 58 54 53 53 55 56 59 60 61 58 57 56 59 61 63 64 64 63 61 55 50 45 40 36 33 32 30 28 27 27
30 29 29 31 32 34 36 36 35 35 35 34 35 38 42 44 46 47 50 51 52 54 55 56 53 52 53 53 55 58 56 55 55 57 58 58 59 62 62 61 58 54 50 43 41 38 33 29 28 27 27 27 30 31
25 26 26 26 27 27 28 28 30 33 35 37 38 40 42 43 44 47 48 51 53 52 52 51 50 50 52 51 48 49 51 54 55 55 58 61 57 57 58 53 47 44 34 31 31 29 27 25 24 24 25 28 32 33
24 26 27 28 29 30 30 31 33 34 34 34 34 36 37 39 41 43 47 48 49 46 45 43 43 44 45 46 48 49 51 50 53 55 53 54 53 48 40 36 33 28 25 26 25 25 25 23 23 25 28 30 31 27
24 25 26 27 28 28 28 29 30 31 32 31 33 35 35 37 39 42 42 38 39 41 42 44 45 44 44 43 43 43 45 49 51 50 43 39 36 31 29 26 26 24 22 22 23 24 25 24 23 25 28 29 27 25
18 20 22 25 26 27 29 30 31 31 30 29 30 31 34 36 38 40 38 36 35 36 38 36 34 31 32 34 38 43 45 44 40 35 30 31 21 17 19 20 21 21 20 22 22 22 25 28 29 29 28 25 25 25
23 25 26 26 26 28 29 28 25 25 26 28 30 31 32 36 38 37 33 26 24 28 28 24 28 32 35 36 36 36 33 29 28 26 24 21 20 23 22 24 21 19 20 22 22 21 20 20 21 23 23 25 26 26
30 33 33 32 32 30 29 29 29 30 32 33 34 33 34 37 37 33 23 22 24 26 28 28 29 32 32 33 33 29 26 30 33 28 21 18 19 25 25 25 20 18 18 20 21 20 19 20 22 22 23 24 25 26
38 37 35 33 34 34 33 32 31 30 33 35 32 32 32 34 32 24 24 26 26 29 27 27 29 30 28 26 25 26 30 31 28 22 22 27 27 28 27 20 19 18 18 16 16 17 19 20 22 22 25 26 25 27
36 36 36 34 32 31 31 31 34 34 29 23 22 25 30 31 30 29 29 28 28 27 25 26 29 31 30 29 27 27 28 29 28 24 21 21 24 28 28 22 20 21 21 21 21 22 23 23 25 26 26 26 27 28
36 34 33 33 34 35 34 28 23 20 23 27 28 29 30 34 34 33 32 33 32 31 29 30 31 32 31 30 28 30 30 28 26 24 23 22 22 23 25 26 26 26 23 20 19 19 20 21 23 24 27 29 30 30
30 31 34 31 31 27 22 27 25 25 28 29 31 30 27 24 27 30 31 29 32 35 34 33 31 32 30 28 28 30 29 27 27 25 22 23 23 23 23 25 25 24 24 22 21 22 23 25 28 30 32 35 35 36
31 30 28 28 28 24 26 28 28 28 28 30 32 35 35 36 30 28 27 28 29 28 27 27 28 29 28 29 28 24 25 24 25 24 22 22 23 24 24 24 24 23 25 26 26 28 30 32 34 36 38 39 41 46
27 28 29 31 29 28 31 30 31 32 31 34 34 35 33 34 31 27 21 25 26 27 27 28 28 28 27 26 23 23 24 24 24 23 23 23 24 25 26 26 26 28 30 32 33 35 38 40 40 41 43 46 48 47
32 34 35 36 35 34 36 38 38 37 36 35 36 37 38 40 38 29 27 31 31 28 28 28 27 26 26 26 27 29 30 30 31 31 31 31 32 32 33 34 35 36 36 36 37 38 39 41 43 44 45 48 49 47

GFSWCAN_500_spd_009.txt.gz
Wind_Speed
56 54 65 62 58 53 52 48 46 45 45 44 44 44 44 44 45 46 45 44 45 43 42 43 41 44 46 49 50 48 47 38 37 38 41 40 42 42 45 45 43 45 47 49 52 55 55 51 54 53 55 57 59 62
59 57 57 60 69 63 61 55 54 53 51 50 48 47 48 53 48 47 49 49 50 49 45 48 49 50 54 52 51 48 45 42 42 41 38 43 46 50 48 51 47 51 48 51 51 57 51 53 59 58 60 61 63 64
54 51 52 52 50 55 60 69 63 62 63 55 53 59 55 59 55 55 54 53 54 54 54 54 49 54 54 52 49 46 43 43 44 41 44 48 51 50 53 56 58 59 54 57 59 56 55 61 60 60 62 63 62 64
59 56 55 54 50 45 43 48 57 62 62 57 54 54 54 57 59 59 54 57 55 57 59 57 56 51 48 44 41 41 40 38 39 40 43 49 51 55 58 58 61 60 57 55 62 61 65 62 65 66 64 65 69 69
65 58 56 54 51 48 45 43 45 46 46 46 47 48 50 53 55 56 54 53 52 53 55 49 40 40 42 44 42 39 39 39 41 45 46 48 53 53 56 61 63 54 54 58 63 63 66 65 64 66 69 72 74 74
67 66 63 60 55 51 49 51 48 47 48 45 45 43 40 44 47 47 50 48 45 42 44 44 42 38 36 39 41 41 41 42 41 44 48 52 53 58 62 64 60 55 58 60 65 64 66 67 68 70 73 72 73 74
68 67 67 64 61 55 54 53 54 54 50 50 46 42 45 44 44 45 48 44 40 38 40 46 47 46 42 43 44 45 46 50 51 53 56 58 57 60 64 67 55 57 61 63 63 67 69 70 68 69 69 67 69 70
61 70 68 69 67 61 60 58 58 56 54 56 57 53 51 52 52 52 52 52 49 48 48 50 52 55 54 55 54 51 51 51 53 54 58 55 55 59 64 54 56 62 64 66 68 69 69 68 69 71 69 69 65 68
50 56 64 64 65 67 65 66 64 60 59 58 62 59 59 59 59 59 57 57 57 54 51 55 57 62 64 62 60 58 58 57 59 60 58 59 59 62 60 61 64 66 71 70 70 68 70 71 71 64 69 68 69 70
47 47 51 54 60 61 60 63 66 66 59 62 64 65 65 69 64 59 54 53 53 49 54 60 59 61 60 59 59 58 60 62 65 63 64 64 64 62 63 67 71 70 69 68 69 72 68 72 69 69 69 70 71 75
48 48 45 46 49 52 55 59 63 65 64 63 62 71 70 64 62 60 57 59 59 62 63 62 56 56 57 56 57 57 61 63 65 65 67 69 67 67 69 68 69 71 71 69 67 67 64 63 67 69 71 73 78 75
43 43 43 44 44 46 49 51 53 53 55 55 54 55 59 60 60 60 61 61 60 59 56 51 49 50 51 52 54 57 59 62 62 64 67 67 67 66 67 70 72 70 70 67 66 66 69 68 69 72 72 72 69 65
44 42 41 41 42 42 43 44 47 48 46 46 45 45 46 49 53 57 58 57 51 47 48 50 51 52 54 56 58 59 61 61 63 64 66 65 64 65 67 68 69 68 65 63 66 69 69 70 69 69 67 64 61 59
48 48 46 43 41 41 41 41 42 43 43 43 43 43 44 45 48 47 47 47 48 49 51 52 53 54 55 58 59 60 63 64 66 66 63 60 63 65 66 66 64 64 65 68 68 67 67 66 64 63 61 61 57 55
47 48 47 48 48 47 46 45 43 43 44 46 47 48 48 48 48 50 51 51 52 53 54 54 55 56 56 57 57 60 62 64 63 56 57 61 63 63 61 62 64 66 65 65 67 68 65 63 62 59 58 55 53 49
44 44 44 44 46 47 46 47 48 49 50 50 50 49 50 50 50 50 50 51 52 52 53 55 56 56 56 58 59 60 61 56 53 57 59 59 60 61 63 63 63 65 66 66 65 63 62 61 61 58 52 50 46 40
33 33 35 37 39 41 42 44 44 43 45 48 48 46 46 46 47 48 49 51 51 53 53 53 53 53 56 58 57 53 52 54 57 58 59 59 60 60 61 64 65 65 64 63 64 64 64 63 62 58 50 44 39 31
25 28 29 30 31 32 32 33 37 40 41 40 40 40 42 42 43 46 49 49 49 50 50 50 51 52 53 52 50 50 54 56 58 60 60 57 58 61 62 63 62 62 63 64 65 65 62 59 54 47 38 36 31 27
24 26 27 28 28 29 31 34 35 35 35 35 36 35 38 41 43 45 46 48 49 50 50 48 50 47 46 47 51 53 56 57 58 56 56 56 57 58 58 59 61 61 64 63 61 58 52 47 40 29 27 26 24 25
25 27 28 28 27 28 30 29 30 31 30 31 32 35 37 39 42 43 43 44 45 46 47 47 45 47 50 49 51 52 51 51 52 53 52 50 52 56 56 57 58 59 56 51 45 41 36 28 21 20 19 19 20 20
25 27 27 28 29 29 29 28 30 31 32 32 32 34 33 35 36 39 41 44 45 45 45 44 43 43 45 44 42 42 43 45 48 52 54 55 52 52 52 51 49 46 41 37 34 28 24 21 17 17 17 16 19 22
25 25 26 27 27 27 25 24 25 26 27 28 30 33 33 34 34 37 42 42 41 41 41 41 39 39 38 38 40 43 45 46 47 48 47 47 49 48 45 41 39 31 28 29 26 24 22 17 17 19 18 19 20 22
22 23 23 22 22 23 24 25 26 26 27 28 29 31 32 34 37 41 42 39 36 35 39 38 37 38 38 37 37 34 33 37 41 43 43 45 41 37 34 33 26 26 27 25 24 23 20 20 21 22 23 24 25 26
20 22 22 22 21 20 20 20 22 25 28 31 32 33 35 36 37 38 36 31 30 36 36 35 33 30 30 25 27 29 33 37 39 39 38 36 33 33 36 28 25 26 29 28 24 23 22 23 23 22 21 20 20 21
14 15 15 14 15 17 20 22 23 26 27 27 28 28 28 33 36 35 31 27 29 30 29 27 22 21 22 24 27 30 32 35 36 34 32 36 37 35 28 24 24 25 28 26 24 23 21 21 19 20 19 19 21 21
19 21 22 20 19 22 25 26 26 27 29 31 30 31 33 37 37 35 30 25 28 26 22 21 23 24 24 26 28 28 30 31 32 32 31 32 32 32 27 26 26 26 28 25 23 23 20 19 17 16 18 19 21 22
29 27 25 25 29 30 31 32 33 34 34 34 33 33 35 37 35 30 23 23 23 23 24 24 24 26 27 28 27 30 32 34 34 33 31 30 30 29 27 26 29 33 33 29 25 24 23 21 20 19 19 21 23 25
31 31 32 33 35 36 37 36 36 34 32 32 34 34 35 33 27 24 26 26 27 27 26 27 29 31 31 32 32 33 33 33 34 34 31 30 31 29 26 25 24 24 24 26 27 27 25 23 22 23 24 25 25 25
32 33 36 37 39 41 43 41 37 33 33 33 34 31 29 28 27 27 27 29 27 27 26 27 29 32 35 36 34 35 35 33 34 34 29 27 28 29 28 26 25 24 24 24 25 26 26 25 24 24 25 26 27 29
36 39 43 43 44 44 38 37 36 34 32 32 34 36 34 30 29 31 29 29 30 30 28 27 28 32 32 28 27 29 32 34 36 30 25 25 26 26 25 25 25 25 24 24 25 25 25 27 29 30 31 32 34 36
46 45 45 44 44 41 38 36 37 35 32 31 32 33 28 27 29 32 32 32 32 30 29 28 30 30 29 30 31 31 31 29 27 25 25 26 26 26 25 25 26 26 27 27 27 27 27 30 32 34 37 38 41 43
31 32 34 34 33 31 32 34 34 34 33 33 32 34 33 34 33 32 31 32 33 35 36 35 33 32 31 31 30 28 29 28 28 29 30 32 32 33 33 33 33 34 34 34 35 36 37 37 37 38 39 41 43 44
31 34 36 39 39 37 35 38 39 36 35 35 35 36 38 39 39 37 38 38 37 38 39 39 38 38 37 37 36 35 36 37 38 38 39 40 40 40 40 40 40 39 39 38 37 38 38 39 39 40 42 43 45 47

GFSWCAN_500_spd_015.txt.gz
Wind_Speed
55 58 53 51 51 50 47 46 46 46 43 40 40 39 38 37 36 35 35 36 35 35 34 33 34 34 35 37 39 40 43 41 46 46 50 50 52 51 43 38 33 34 37 36 38 44 44 47 52 56 60 61 60 59
54 59 53 52 53 49 50 47 46 46 45 42 41 41 41 41 39 39 39 38 38 38 37 37 36 37 42 43 44 46 48 50 52 50 50 52 53 46 39 38 31 36 33 39 42 46 43 49 57 61 63 64 62 61
50 55 52 55 53 51 51 47 47 45 44 42 42 42 43 43 42 41 41 41 41 41 40 39 38 46 48 50 53 55 57 57 54 52 53 53 46 42 40 40 40 41 38 42 47 46 50 56 57 59 64 63 63 65
58 55 55 51 53 51 55 48 48 46 45 44 44 44 44 44 44 44 44 45 46 45 44 42 45 48 52 57 59 61 60 60 52 50 51 46 43 41 39 43 46 44 44 47 54 56 60 58 58 65 65 64 66 72
62 57 57 53 46 49 59 51 49 47 46 45 44 45 46 48 48 46 47 48 48 49 52 50 53 57 57 54 52 51 49 48 44 41 39 41 43 44 45 49 52 47 52 57 62 63 66 64 65 70 70 68 72 75
66 62 58 53 49 49 57 62 58 57 56 52 50 49 48 48 50 49 51 54 54 55 56 59 60 51 42 41 43 44 42 42 38 37 39 41 45 49 53 54 54 52 56 61 65 67 68 68 65 69 67 75 74 72
69 67 60 58 55 56 55 51 52 49 51 50 54 56 57 57 56 59 60 59 59 61 58 52 52 44 33 33 37 38 39 41 43 46 47 49 50 54 59 60 54 60 64 67 69 70 69 68 68 64 74 73 72 73
74 72 67 60 61 61 63 56 53 52 49 49 53 52 55 55 51 51 52 49 44 45 42 44 47 44 45 42 40 40 41 44 48 51 53 54 59 62 65 57 61 65 69 69 69 69 68 69 70 70 72 73 72 72
61 70 70 65 67 69 66 63 61 60 51 50 49 48 50 51 52 50 48 46 48 46 44 46 49 50 53 52 51 48 48 49 53 55 57 60 62 64 63 64 65 67 67 67 67 68 70 70 70 71 70 71 68 64
49 50 59 65 64 66 73 73 68 67 64 59 54 53 53 54 53 52 51 52 51 52 53 54 53 54 52 53 55 59 60 61 61 61 63 64 63 64 64 65 64 63 64 68 70 68 68 70 71 70 67 62 66 69
51 46 46 48 56 65 66 67 69 65 65 64 59 56 54 54 55 57 56 56 55 57 56 55 56 56 57 59 62 64 66 68 70 70 69 70 70 67 64 64 66 68 67 67 67 66 63 60 68 69 67 66 68 66
47 45 44 42 42 45 52 57 59 60 60 64 65 61 59 59 60 61 61 62 61 61 59 57 59 62 62 63 66 67 68 70 70 70 70 69 65 65 66 66 67 68 68 68 71 71 71 71 72 72 72 69 67 68
48 45 44 44 42 41 40 43 47 51 55 56 56 56 57 60 62 62 62 62 60 58 56 54 54 57 59 62 64 65 66 66 66 65 65 61 60 61 64 66 68 70 69 70 71 71 70 69 68 67 68 69 73 73
48 45 42 41 42 41 39 39 40 42 44 46 49 51 54 55 59 58 56 57 58 57 57 57 58 58 59 59 58 58 59 61 62 61 59 61 64 65 66 68 70 70 68 67 66 66 66 66 67 68 69 71 73 72
48 47 44 41 41 40 40 39 40 40 41 42 44 46 47 48 49 49 49 49 49 48 48 50 51 52 52 53 53 56 58 60 60 56 59 63 66 68 70 69 65 62 62 64 63 64 65 66 68 69 68 68 70 71
43 46 45 43 42 42 42 41 41 43 43 42 42 42 44 45 45 46 47 48 49 49 49 49 50 52 53 54 54 54 57 55 54 60 64 67 69 67 62 58 58 60 62 62 64 64 65 67 67 66 66 67 66 62
37 39 40 40 41 41 41 41 40 40 42 41 41 41 41 42 43 45 47 48 49 49 49 50 49 51 52 54 54 52 51 55 61 66 67 63 59 56 56 58 60 62 61 61 62 62 62 64 66 66 64 55 48 43
30 32 33 34 33 32 34 36 36 39 40 39 40 41 43 45 46 47 47 47 48 49 50 49 50 51 53 53 47 51 58 64 62 58 56 54 55 57 59 60 59 59 57 57 60 61 63 63 61 53 44 38 33 29
31 29 28 28 29 31 31 32 34 36 36 38 40 41 42 43 45 46 46 47 48 48 49 49 53 51 44 47 54 57 55 52 51 50 51 52 55 57 57 56 54 55 56 56 56 57 56 52 40 34 32 30 26 22
35 30 26 28 30 31 31 29 31 32 33 34 36 38 40 41 43 43 44 45 45 46 48 48 42 41 48 49 47 47 47 49 51 52 50 50 52 52 50 52 52 51 51 50 49 48 42 34 30 31 30 27 23 20
26 25 26 26 26 25 25 23 25 28 32 34 36 38 39 40 41 42 42 42 46 45 43 36 39 41 42 43 46 47 47 49 49 51 50 45 45 46 47 46 46 46 46 42 42 40 35 28 27 30 27 23 22 21
22 23 22 22 20 20 21 22 25 29 31 33 34 35 35 36 37 37 38 38 36 33 36 37 40 42 44 44 45 46 45 45 45 45 45 45 43 42 40 41 41 38 38 38 37 35 24 21 24 25 25 24 23 23
26 24 23 24 25 25 26 28 28 30 31 31 33 32 31 31 32 34 34 34 36 37 39 40 42 43 43 43 41 40 41 42 41 42 41 40 39 38 36 36 37 37 37 36 35 31 25 23 25 26 27 26 25 22
24 26 28 29 28 27 26 28 28 28 28 28 28 28 30 32 35 36 35 36 38 38 40 39 40 40 40 40 39 40 40 39 37 36 36 36 36 35 35 35 37 38 39 37 34 30 27 25 27 28 28 25 24 23
27 27 27 25 24 24 25 25 26 25 25 25 25 26 29 32 35 36 35 34 36 36 37 38 39 40 39 40 41 39 36 34 32 31 30 34 37 37 36 37 37 37 38 36 34 32 28 26 24 23 23 24 24 23
24 22 19 16 15 16 17 16 18 20 22 24 25 28 30 33 34 35 32 36 38 39 38 38 38 38 37 34 30 29 31 33 35 34 32 35 38 41 37 35 32 30 35 33 32 31 29 28 27 26 25 25 24 23
19 17 14 14 15 16 17 19 21 24 27 30 32 34 35 36 35 35 37 39 40 37 36 37 34 28 23 25 29 31 31 31 32 33 32 34 35 34 31 30 29 30 27 26 27 28 26 26 25 26 26 24 24 25
19 17 15 18 21 23 25 27 30 33 35 38 39 39 41 41 42 41 38 37 35 35 33 27 25 27 28 27 24 25 25 25 25 26 27 29 29 29 28 29 28 26 24 25 25 25 26 26 26 27 27 27 26 26
21 22 22 23 26 31 34 37 38 40 42 45 46 45 48 50 46 39 37 38 34 32 29 29 30 31 28 27 29 27 26 26 27 27 28 27 28 30 31 31 30 29 29 30 32 32 32 32 33 33 33 33 33 34
26 30 32 34 36 37 38 42 43 44 47 50 53 52 47 42 38 37 35 32 30 28 26 26 26 27 28 29 28 28 28 31 33 34 33 32 34 36 36 37 37 37 38 39 40 41 42 41 41 40 39 39 38 38
31 34 36 37 37 37 41 45 47 47 46 47 47 47 44 40 36 33 31 27 26 27 27 29 31 30 28 28 30 32 34 36 37 38 39 39 39 39 39 39 41 42 44 45 46 45 43 42 41 40 40 40 40 40
33 36 39 38 35 35 38 41 43 46 49 54 53 53 51 49 45 40 35 30 28 29 31 32 33 33 33 36 37 39 39 39 39 38 39 39 40 41 43 44 45 46 47 47 46 45 44 43 42 42 41 42 42 42
26 28 32 34 35 35 39 42 42 44 47 54 46 42 47 48 45 41 38 36 34 33 34 35 37 38 38 38 37 37 37 39 39 39 39 40 42 44 45 46 45 45 45 44 42 41 40 40 41 41 41 40 39 38

GFSWCAN_500_spd_018.txt.gz
Wind_Speed
62 59 51 46 49 50 47 45 45 44 42 41 40 38 36 35 35 35 35 34 33 32 32 32 33 32 32 32 32 34 33 35 42 45 49 50 55 57 52 49 45 40 38 35 37 37 38 43 47 49 53 56 58 63
55 57 62 54 48 50 49 46 45 45 44 43 43 41 39 36 35 35 35 35 34 34 33 34 35 35 34 35 37 36 38 43 49 50 54 59 60 59 55 50 39 39 35 41 38 41 41 48 52 55 59 62 65 65
50 48 49 56 55 51 50 47 45 45 43 43 43 43 42 39 37 36 36 36 37 37 37 37 36 37 37 39 39 41 42 50 52 58 58 55 52 50 45 41 37 34 34 39 45 42 48 53 56 60 61 65 68 71
53 47 48 54 53 52 50 49 47 45 44 44 43 42 42 41 39 39 39 39 39 39 40 40 40 40 42 44 44 45 51 54 57 56 51 47 42 43 37 36 38 37 42 45 50 53 58 57 63 65 67 69 72 65
54 53 53 55 61 55 52 49 47 46 45 43 43 43 42 41 42 41 41 41 41 42 43 42 43 45 46 46 46 50 55 59 56 48 44 40 36 34 38 43 43 42 46 52 56 59 62 63 65 67 72 76 72 70
55 55 53 57 55 49 55 48 47 48 45 45 43 44 44 43 43 43 43 43 43 44 49 48 46 45 48 50 52 52 58 53 45 40 38 36 37 41 45 47 46 49 52 57 60 62 65 66 70 74 76 76 75 73
56 54 57 55 51 48 57 52 49 54 46 51 46 45 45 44 43 43 44 43 46 48 50 53 52 51 53 56 58 54 52 47 43 43 44 43 42 47 49 52 52 55 60 64 65 66 69 72 75 77 75 72 74 77
60 55 57 58 56 52 54 51 45 45 47 50 50 47 48 48 49 49 51 52 50 52 55 60 62 56 54 46 41 42 45 46 48 50 50 50 51 53 56 56 57 60 64 67 68 69 72 74 73 72 74 77 75 75
56 63 58 58 57 55 53 52 51 46 42 44 52 53 52 52 45 44 46 51 53 53 54 54 52 51 50 48 47 47 49 49 50 51 52 54 58 60 62 61 63 66 69 70 72 72 71 71 72 73 75 75 75 75
57 56 64 63 62 60 56 55 55 49 46 48 49 54 49 48 46 48 49 49 50 50 53 52 53 53 51 51 53 54 56 55 58 58 58 58 60 62 63 65 67 69 69 69 70 71 71 70 71 74 73 73 74 73
60 55 52 66 67 62 63 63 58 51 51 54 52 50 50 52 52 53 52 51 51 53 55 55 53 52 52 54 56 59 61 62 62 62 63 65 66 66 67 69 69 67 67 68 68 68 70 71 70 69 72 74 73 73
58 58 52 48 57 66 68 61 56 54 51 51 55 56 52 55 57 60 62 60 57 56 54 52 53 54 55 56 58 60 62 64 65 67 68 70 68 70 70 69 69 69 69 70 71 70 71 73 73 75 74 74 74 74
52 51 51 50 43 47 57 69 67 61 60 60 56 56 58 63 64 62 58 58 58 54 54 56 55 55 56 58 60 61 62 64 66 68 69 65 64 66 67 67 68 70 70 70 70 72 74 74 71 70 72 72 73 72
46 45 42 42 44 43 40 44 52 61 65 65 63 61 65 67 68 65 63 60 59 58 57 57 58 58 57 58 59 61 62 65 65 62 60 62 65 66 66 67 68 68 69 71 72 72 68 66 68 68 67 68 69 69
45 43 42 41 41 42 43 40 39 40 44 49 51 55 58 57 55 53 51 51 51 51 52 52 54 53 54 56 57 58 59 59 58 58 60 63 65 66 67 66 65 69 70 69 65 64 64 65 66 65 64 65 67 68
47 46 42 40 39 40 43 44 43 42 41 41 41 41 42 42 42 42 43 45 46 47 47 48 49 51 52 53 54 55 56 55 57 61 64 66 67 64 63 65 67 65 61 60 61 61 62 63 62 62 63 65 64 59
43 45 44 40 38 39 39 39 40 41 42 39 38 40 41 42 42 43 44 44 44 45 45 47 48 50 51 53 54 54 54 58 61 65 67 64 61 62 63 63 59 58 58 59 60 60 59 59 60 62 62 57 52 42
34 39 45 45 43 40 38 37 38 39 38 37 37 38 39 41 41 42 43 44 44 45 46 47 49 51 52 53 52 54 60 64 66 62 60 59 58 58 58 57 57 58 58 57 57 57 57 58 58 56 52 50 38 35
28 30 33 38 40 39 38 37 36 34 33 34 36 38 40 42 43 44 45 46 46 47 48 48 52 51 50 51 54 61 63 58 57 57 54 51 53 55 57 57 57 55 54 53 52 51 52 51 51 50 48 41 33 35
34 30 28 30 31 31 30 30 31 33 33 35 38 39 41 43 44 45 46 47 47 48 48 48 47 45 49 56 58 54 52 50 49 48 46 48 53 54 54 53 52 51 49 46 44 46 46 44 44 44 40 30 31 29
27 27 24 24 23 23 22 21 25 28 32 36 38 39 39 39 40 41 42 43 44 43 43 42 45 46 48 45 43 44 44 47 48 51 50 48 48 48 48 49 48 45 43 42 41 41 41 42 39 38 30 25 26 28
26 28 29 30 27 26 25 25 26 25 26 27 28 29 31 33 35 37 38 39 39 37 40 40 40 40 40 40 43 46 47 49 50 50 48 47 46 46 46 46 44 41 40 40 40 39 39 39 37 34 31 30 31 31
31 29 29 29 27 24 22 22 23 25 27 29 32 33 33 34 34 35 36 36 36 36 37 37 38 41 42 44 47 48 50 49 47 46 45 45 46 45 43 40 40 39 38 38 41 41 38 37 36 34 31 30 30 29
21 22 22 22 21 22 25 28 29 31 32 33 33 33 33 33 33 33 31 30 34 35 37 40 42 43 44 44 44 44 45 46 44 43 45 44 42 39 38 37 39 40 43 42 40 39 37 35 34 33 31 28 27 26
20 19 18 19 23 29 32 31 32 33 33 32 30 30 30 32 33 33 31 31 33 34 36 39 41 43 43 44 45 45 45 44 44 41 36 38 38 37 37 38 41 43 43 39 37 36 35 31 31 31 29 27 26 27
20 22 23 26 28 29 30 30 30 30 28 27 26 26 29 32 34 34 32 33 35 37 38 41 43 43 43 40 39 39 40 38 37 36 33 34 36 36 35 34 34 34 35 35 36 34 29 27 28 28 28 27 28 28
21 21 23 24 24 24 23 24 24 23 23 25 26 28 32 36 36 36 38 40 41 41 44 47 43 39 36 35 35 37 35 33 33 31 30 31 30 31 32 33 31 29 28 29 29 28 27 27 29 31 32 31 31 31
23 21 20 21 23 25 25 25 27 28 29 32 34 37 40 41 41 42 42 43 45 47 49 47 44 41 39 37 34 33 33 33 32 33 34 35 35 33 33 34 33 32 33 33 33 33 33 34 35 36 38 39 39 38
18 18 20 23 26 27 28 29 30 32 36 39 42 43 45 46 47 49 48 47 44 43 41 41 40 40 37 34 34 35 34 33 33 32 34 35 37 39 40 39 39 39 40 40 40 39 40 41 42 43 44 44 41 40
20 23 24 25 26 29 31 35 35 37 41 43 44 45 45 46 50 51 50 50 47 43 40 39 37 37 35 33 31 31 31 32 33 35 35 36 38 40 41 42 43 44 45 46 45 45 45 46 47 47 47 46 44 43
22 25 27 30 34 35 38 38 38 39 38 39 41 44 46 51 56 58 59 57 53 46 41 37 36 35 35 33 32 32 33 35 36 37 39 41 42 42 42 42 42 43 44 45 45 45 46 47 47 47 45 43 41 40
34 37 39 38 36 37 34 32 32 32 34 39 42 45 48 51 58 58 47 41 45 46 40 38 36 36 35 35 36 36 36 36 39 40 41 41 41 42 43 43 42 42 43 44 45 45 46 45 43 42 42 43 43 42
33 33 30 27 27 28 32 32 33 34 36 39 40 41 43 44 45 32 23 18 17 23 31 34 35 36 36 37 38 38 39 39 39 39 38 40 42 42 40 40 43 45 45 43 43 43 42 42 43 43 43 41 39 38

GFSWCAN_500_spd_021.txt.gz
Wind_Speed
47 52 56 46 45 44 44 42 42 42 39 36 35 34 34 34 34 34 33 33 32 31 30 30 29 29 30 30 31 30 31 31 33 33 35 40 44 47 50 52 47 42 40 41 40 34 32 34 39 41 46 50 55 57
46 51 55 52 44 46 46 44 43 44 42 39 37 35 34 33 33 35 34 33 33 33 32 31 31 31 32 33 32 32 32 34 37 38 41 45 48 51 55 51 42 34 33 35 34 31 34 38 42 47 52 56 59 63
50 51 56 56 48 46 46 46 44 43 45 44 42 39 37 35 34 34 33 33 33 33 33 33 33 33 34 35 34 35 35 38 40 43 45 49 51 57 52 46 43 32 27 33 39 34 41 46 49 54 57 61 65 67
54 56 58 53 55 48 44 45 44 45 44 44 42 41 41 40 38 37 36 34 35 35 35 35 35 35 36 36 36 36 37 40 44 46 48 52 56 55 45 41 39 33 35 40 42 42 48 49 54 56 61 66 70 72
52 53 58 58 58 55 49 45 44 45 45 44 43 41 41 41 40 39 38 37 37 38 37 36 38 38 39 38 38 40 41 43 44 47 53 57 55 47 43 44 42 42 42 45 49 52 56 59 62 66 70 71 72 75
62 55 54 54 51 55 57 56 50 46 45 46 45 42 41 41 41 40 40 39 39 39 41 39 39 39 40 41 41 42 43 44 50 56 59 58 48 45 46 48 49 48 49 52 55 59 61 65 68 72 74 75 75 74
61 58 51 52 52 49 48 57 55 49 45 48 47 44 42 43 43 41 41 40 41 41 41 42 43 40 40 41 43 44 46 52 55 55 50 45 45 48 51 52 50 51 54 56 59 62 65 69 72 74 73 73 72 72
56 57 57 53 51 47 48 49 49 47 50 46 45 45 44 45 46 44 42 41 41 41 43 46 45 44 43 43 46 51 53 51 52 46 46 48 52 52 54 52 53 56 59 60 63 67 70 72 72 72 71 71 71 74
48 55 57 56 54 51 51 53 49 50 46 46 46 46 44 46 44 46 43 44 45 44 44 47 49 47 47 47 48 48 45 46 48 48 49 52 54 56 57 57 59 60 62 65 67 69 70 70 70 69 69 72 74 74
45 47 58 59 54 52 52 52 48 43 50 50 50 51 46 43 47 48 49 48 48 47 48 46 45 45 44 45 46 46 49 49 51 54 55 58 59 57 57 58 60 62 64 67 67 65 65 65 67 69 72 73 75 77
49 44 47 54 57 54 53 52 51 46 44 51 55 50 47 47 45 42 44 51 52 53 52 46 43 44 45 48 50 53 53 55 58 58 59 60 61 59 60 63 65 66 65 64 65 67 67 70 72 72 73 75 76 75
51 49 46 48 51 55 54 54 53 51 50 49 49 48 48 49 47 48 51 53 53 52 52 51 49 49 50 51 51 51 54 59 61 62 62 64 63 63 64 64 65 66 66 67 67 68 70 72 73 76 77 76 74 72
42 48 50 50 52 49 56 55 55 56 55 54 52 50 52 52 54 57 57 55 52 52 53 54 51 52 54 56 56 56 59 62 63 64 63 60 58 60 61 63 63 63 65 66 66 69 72 73 74 74 72 71 72 70
40 42 47 51 51 50 46 51 53 58 54 55 56 58 56 57 58 57 55 55 56 56 58 60 60 59 59 60 58 60 63 62 62 60 56 57 60 62 62 61 60 63 65 67 68 70 73 73 72 68 68 69 68 65
41 42 43 43 45 49 52 43 50 57 58 56 55 56 57 58 58 61 64 62 60 60 61 64 64 60 60 60 59 60 59 57 55 53 56 58 59 60 59 60 63 66 67 68 69 71 69 66 65 63 63 63 62 62
38 43 40 37 36 38 44 53 48 44 52 60 61 59 58 58 59 59 61 61 62 63 65 66 64 60 54 54 55 53 52 52 53 55 57 59 59 58 60 64 66 66 67 67 65 62 61 61 61 59 58 59 60 57
38 33 38 36 37 37 39 41 40 44 42 42 40 44 46 49 51 52 53 54 52 51 51 51 50 49 51 52 51 50 50 53 55 57 60 58 57 59 62 64 65 64 60 58 57 57 57 56 55 56 56 56 52 49
27 36 40 36 34 35 34 33 36 39 40 40 41 43 44 44 44 43 43 43 44 45 45 45 46 46 47 48 50 53 55 58 59 58 55 56 58 59 60 60 57 55 55 55 56 55 53 53 50 49 51 51 47 46
24 27 41 40 32 32 33 32 31 32 34 37 39 40 40 41 42 42 42 42 43 44 44 43 46 46 48 51 54 56 58 56 53 54 55 56 56 55 54 54 55 54 54 54 53 51 50 46 43 45 47 48 46 42
23 22 29 39 41 36 32 32 31 31 30 31 34 36 37 39 39 39 40 41 42 43 43 44 44 47 51 53 52 51 51 52 52 52 50 47 49 51 53 55 54 52 52 51 49 46 44 41 41 43 45 46 44 39
27 25 25 24 28 33 37 38 37 35 32 30 30 31 32 35 37 39 40 41 41 41 42 44 46 45 45 45 45 45 46 47 48 48 46 45 48 51 52 52 52 51 48 48 45 40 39 41 42 42 43 43 42 37
28 24 24 22 19 20 23 22 21 19 21 25 29 31 32 32 32 32 32 33 34 37 41 41 42 43 43 41 42 43 45 46 46 47 50 51 49 48 48 49 47 46 46 43 40 36 39 43 44 42 41 40 38 35
28 25 25 23 22 22 20 18 19 24 26 27 27 27 26 28 29 31 33 34 37 40 39 38 37 37 37 39 42 45 47 47 47 48 48 49 49 49 47 45 45 43 39 36 37 39 42 43 39 38 38 36 32 31
23 20 23 23 23 24 24 26 27 26 25 26 28 30 32 33 35 36 34 33 36 35 35 36 37 39 42 43 44 45 47 48 47 47 49 48 47 45 42 39 38 38 37 35 36 38 38 38 38 37 33 29 28 28
23 25 25 23 22 22 21 23 25 26 28 30 32 34 36 38 37 34 31 30 31 32 34 36 38 40 42 44 47 49 50 50 49 47 45 46 45 40 36 35 35 36 35 34 34 35 35 32 32 30 28 28 28 29
16 16 17 18 21 22 23 26 29 31 33 35 35 35 35 34 33 32 29 29 31 34 37 40 42 44 46 48 49 52 54 54 50 47 43 43 40 37 35 33 33 34 35 36 36 34 33 33 34 33 33 33 34 35
15 18 22 24 26 28 30 32 32 31 29 28 28 29 31 32 32 32 35 38 41 44 46 48 48 48 48 50 51 51 51 49 46 45 43 40 37 36 36 37 38 39 39 39 39 40 39 40 41 41 40 41 42 42
22 25 26 26 27 28 27 26 26 26 25 26 28 31 34 36 38 41 44 47 50 51 52 53 53 52 50 47 44 43 42 43 43 43 41 38 38 39 40 41 41 40 40 40 41 42 43 44 45 46 46 45 44 45
23 24 25 26 26 25 23 24 25 26 28 30 32 34 38 40 43 46 48 48 48 50 52 55 56 57 54 51 47 43 40 40 39 38 38 37 37 38 39 41 42 41 42 45 46 44 43 43 44 45 45 46 46 46
25 27 27 27 25 24 25 27 27 29 32 36 39 41 42 45 45 43 44 46 49 52 56 61 67 64 57 49 44 41 39 37 36 35 35 35 36 38 41 42 43 44 46 46 43 44 45 44 44 44 45 45 45 45
20 19 19 19 20 24 27 31 35 37 38 39 39 39 39 40 41 41 43 45 47 51 55 57 52 37 30 35 35 35 37 35 34 35 36 38 39 40 41 42 44 44 43 43 43 41 40 43 46 47 46 46 44 43
26 26 27 29 31 34 35 37 35 30 29 31 34 35 36 39 43 44 45 46 45 48 48 44 35 25 21 24 29 32 35 36 37 37 38 40 41 43 43 43 42 42 43 44 43 43 44 47 47 46 43 42 43 43
29 31 31 28 26 26 27 28 29 28 28 30 32 34 38 42 44 46 46 46 45 44 44 41 36 31 27 26 29 32 34 36 38 39 41 42 43 44 44 44 45 47 48 46 45 46 49 48 45 43 43 43 43 42

GFSWCAN_500_spd_027.txt.gz
Wind_Speed
38 50 49 44 47 49 47 44 40 38 37 36 35 34 33 34 34 35 35 36 36 36 35 33 32 30 29 28 27 27 27 27 29 29 30 30 31 32 33 34 35 37 41 42 47 48 45 40 37 39 41 43 46 49
38 43 49 42 46 48 47 45 42 39 38 37 36 35 35 35 35 35 36 36 36 36 36 35 34 33 32 31 31 31 30 31 32 33 34 34 34 35 35 37 38 36 40 44 47 40 39 41 44 44 46 49 52 55
35 38 46 43 41 44 47 45 43 42 38 37 37 36 35 35 36 36 36 37 37 37 37 37 36 35 34 33 33 33 34 34 36 36 36 37 37 36 39 40 39 36 42 48 48 35 39 41 43 46 49 53 56 58
43 37 43 41 41 39 44 46 44 43 40 39 38 37 36 36 36 37 37 37 38 38 38 38 37 36 36 36 36 37 37 37 36 37 38 40 39 41 42 43 43 39 46 50 49 44 44 43 45 49 53 57 60 63
46 40 40 37 41 46 40 42 44 44 41 40 40 40 38 37 35 36 37 37 37 39 39 39 39 37 37 38 38 38 38 38 37 38 40 41 42 42 45 47 40 44 47 48 47 44 46 49 54 55 57 61 64 68
49 44 41 39 45 45 47 44 40 41 41 42 40 40 41 40 38 37 38 38 37 37 39 39 39 38 39 38 38 38 38 38 39 41 43 44 43 44 48 46 41 41 42 43 47 48 50 52 55 58 62 65 68 70
56 50 41 41 44 46 46 45 45 44 40 41 41 42 40 41 42 43 42 39 40 40 41 41 41 40 38 39 39 40 40 41 43 45 45 44 44 48 50 46 41 41 43 46 48 50 53 56 58 62 65 68 70 71
54 55 56 49 49 44 44 43 42 43 43 42 42 43 44 44 42 45 46 44 43 43 44 47 46 42 39 41 43 43 43 44 45 47 47 45 48 49 48 38 41 45 48 50 52 55 58 61 64 67 68 70 71 71
47 54 56 55 50 50 47 45 46 45 47 47 46 45 45 46 46 45 46 46 45 47 48 48 46 44 43 42 43 44 45 46 48 49 47 48 49 48 41 42 44 47 50 53 57 60 62 65 67 68 70 70 71 71
45 43 45 56 52 52 51 46 44 46 47 51 47 45 43 43 44 47 48 48 48 46 48 47 44 46 45 43 43 44 47 49 52 51 50 51 51 46 45 48 50 54 56 58 60 62 65 68 69 69 69 69 69 70
44 43 45 46 51 56 54 50 45 46 49 53 50 51 49 47 48 50 53 52 51 48 46 47 46 46 44 44 46 50 52 53 53 53 54 58 58 51 52 55 57 59 62 63 65 67 69 68 67 68 68 69 70 70
43 44 47 47 49 51 56 55 49 46 45 47 49 50 52 53 54 57 58 58 55 53 47 44 46 44 45 46 47 49 46 48 52 53 53 53 50 52 57 60 62 64 66 67 69 69 67 67 67 67 67 69 70 72
42 47 46 46 47 48 50 50 50 48 45 45 47 50 51 51 52 53 52 48 47 46 43 39 41 45 47 50 55 53 51 52 52 52 54 54 55 59 62 63 66 68 68 69 69 68 66 65 66 67 67 69 70 69
28 37 46 48 47 43 46 49 53 53 49 49 48 54 55 56 58 59 56 53 51 48 48 49 48 52 55 53 51 52 54 56 58 59 60 60 62 64 66 68 66 67 68 68 66 63 63 64 66 67 67 67 67 65
26 28 31 37 46 48 47 45 44 50 56 56 53 56 61 63 62 60 58 57 57 56 55 55 55 54 55 55 55 57 60 61 60 62 63 65 66 66 66 67 67 66 64 62 61 62 63 64 65 66 65 63 62 61
25 27 30 29 32 40 49 47 45 45 49 55 56 54 55 54 58 63 64 62 60 59 58 60 58 60 60 60 60 61 64 64 64 65 65 64 63 61 60 61 61 59 59 60 62 63 64 65 64 63 60 59 59 57
28 31 32 33 33 32 37 45 47 48 49 46 46 49 53 53 50 50 55 60 62 61 61 60 57 57 59 60 61 62 61 60 60 60 57 55 55 56 57 57 57 58 59 60 61 62 63 62 60 58 57 56 54 52
33 34 35 35 35 34 35 37 42 47 49 49 47 44 42 42 43 43 45 46 47 48 50 50 50 49 51 52 53 55 55 52 51 51 52 52 53 55 56 57 58 59 59 59 60 60 58 57 56 55 54 52 51 51
37 36 35 35 35 34 34 36 38 40 42 44 48 51 50 46 43 41 40 40 40 42 43 46 47 47 48 48 45 45 46 48 48 49 50 51 53 55 57 57 57 58 59 58 57 56 56 54 53 53 52 50 48 45
37 35 35 34 34 36 36 36 39 41 42 40 40 39 42 46 44 40 37 36 37 38 39 40 43 43 42 41 41 43 44 45 46 47 49 51 53 54 55 57 57 57 55 54 54 53 51 50 50 48 46 43 42 40
36 33 31 30 29 29 29 31 31 35 33 30 29 29 27 27 28 28 27 27 28 30 31 33 35 35 36 37 38 40 42 44 46 48 50 52 54 54 54 54 54 52 52 52 50 49 49 49 46 42 40 40 37 34
32 32 24 24 22 23 26 25 25 24 27 27 25 24 24 25 26 26 26 27 28 29 29 29 30 31 33 37 40 43 45 47 49 50 51 52 52 52 52 52 53 53 53 53 51 48 46 44 41 38 36 33 31 31
28 27 25 23 26 26 22 26 26 27 25 23 23 22 21 20 22 23 22 23 26 26 28 31 35 38 40 42 44 46 46 47 47 48 49 50 51 53 55 55 56 56 52 50 49 47 43 40 38 36 33 33 33 32
32 28 23 23 23 23 23 20 19 18 19 19 19 17 16 16 19 21 23 29 32 33 36 38 40 42 43 43 43 44 45 46 48 49 51 54 56 57 58 57 56 55 52 49 47 46 42 38 37 36 35 36 36 35
28 28 29 24 19 17 18 18 16 15 17 17 17 16 19 22 24 27 31 35 35 37 39 40 41 42 42 42 43 44 47 48 49 51 52 54 56 58 61 61 60 58 54 51 47 45 41 37 35 37 37 38 38 37
32 31 25 19 22 21 19 20 20 19 20 22 24 25 26 28 30 33 35 38 40 41 42 41 41 41 42 44 45 46 48 51 50 50 51 54 57 59 64 70 65 56 53 50 46 43 40 36 36 37 38 37 39 39
26 25 23 23 20 19 19 20 20 21 23 23 24 28 31 33 35 37 40 42 42 42 42 42 43 43 43 44 46 46 45 47 50 51 52 54 56 60 66 66 55 46 44 44 43 40 38 36 36 37 37 39 41 41
24 24 23 26 24 23 23 22 22 23 24 27 32 36 38 40 43 43 43 42 42 43 43 44 43 45 46 45 43 43 45 48 50 51 51 53 53 54 52 38 28 33 37 38 38 38 37 36 36 38 40 42 43 44
22 24 25 24 23 23 25 26 28 30 33 35 39 42 44 44 43 42 42 42 41 43 45 48 50 48 45 43 44 46 49 50 50 50 50 51 50 47 41 35 30 31 33 35 36 37 38 39 40 41 43 45 46 47
20 21 21 24 26 27 29 31 34 37 39 41 42 42 43 42 40 41 42 43 46 49 49 47 45 44 44 45 47 50 51 51 51 50 50 49 48 44 39 36 35 35 35 36 36 37 39 41 43 44 45 46 48 49
24 26 28 30 32 33 35 36 37 38 38 38 39 40 40 41 43 46 48 47 46 44 45 46 46 46 47 48 50 51 52 52 52 52 51 50 47 44 41 38 39 40 40 40 40 40 41 42 45 46 47 49 50 53
31 32 33 34 35 37 37 37 38 39 40 42 43 43 45 43 42 41 41 43 44 45 46 46 46 47 49 50 51 52 53 53 53 52 50 47 45 44 43 42 41 41 42 42 41 40 41 43 45 48 50 50 51 53
33 34 35 35 35 36 37 38 39 40 41 42 42 44 43 43 42 42 43 44 44 45 46 47 49 50 51 51 52 53 53 51 50 50 51 52 52 51 50 48 46 44 42 40 40 42 45 48 51 50 51 52 52 47

GFSWCAN_500_spd_033.txt.gz
Wind_Speed
43 44 58 55 52 51 47 43 40 38 36 32 32 33 34 36 38 40 41 41 40 39 39 39 35 35 33 30 28 28 29 27 27 27 27 26 27 28 29 30 30 33 35 36 38 40 43 47 48 45 45 49 47 43
41 41 57 52 50 50 47 44 41 39 37 36 31 31 32 33 35 37 38 39 39 38 39 39 38 38 36 34 32 33 33 30 31 30 29 30 31 31 31 33 35 37 38 39 39 41 45 48 49 47 47 48 45 44
43 43 53 50 50 50 48 46 43 40 37 36 34 30 31 32 33 35 36 38 39 39 39 39 38 38 38 37 35 35 35 34 33 32 34 34 34 34 36 36 37 40 41 42 44 45 48 52 52 51 51 49 46 46
43 41 42 51 55 50 49 47 45 42 39 37 35 35 31 30 30 32 34 35 37 37 38 39 38 38 39 39 38 37 37 37 37 36 37 37 38 40 39 40 41 37 38 39 43 45 49 50 53 52 51 49 48 48
37 37 42 49 51 52 48 47 45 44 41 38 36 34 34 31 30 31 32 33 34 34 35 34 35 36 37 38 38 39 39 39 39 38 39 41 42 42 42 43 40 36 38 43 45 44 47 51 51 51 52 52 53 54
31 31 35 41 47 49 46 47 47 45 43 40 38 36 35 35 33 32 32 32 30 31 33 33 33 34 35 36 38 37 36 37 39 40 41 43 42 43 45 44 36 38 43 45 45 49 52 52 52 52 53 56 60 59
35 32 29 30 37 42 49 47 45 45 44 42 40 38 36 34 34 35 33 31 30 30 32 34 34 35 35 35 35 35 37 38 40 41 42 40 40 44 45 43 38 43 47 44 48 52 54 53 53 56 59 61 61 62
42 38 33 31 32 35 43 50 45 44 45 43 41 40 38 36 35 34 33 32 32 33 34 36 35 33 32 33 35 35 35 37 38 39 41 40 43 46 47 42 45 45 45 47 51 54 54 54 56 59 57 59 61 64
44 45 43 31 29 27 37 36 39 38 40 42 42 42 40 39 37 36 35 34 35 36 37 36 34 34 34 35 36 37 38 39 41 43 44 46 48 47 44 44 45 46 47 50 51 52 53 54 55 56 59 63 66 69
47 46 40 36 32 28 35 36 32 30 35 38 41 42 42 40 39 38 37 37 37 37 38 37 35 37 37 38 37 38 39 41 44 44 45 48 48 45 45 46 46 47 50 51 52 52 53 56 59 62 64 67 69 70
39 45 44 40 39 35 33 38 35 32 37 39 37 37 37 36 37 37 38 39 38 38 38 38 37 36 35 36 36 37 39 42 44 46 48 50 48 46 46 48 48 49 52 53 53 54 57 60 63 66 67 69 70 70
40 38 45 44 44 42 39 37 34 33 31 33 36 36 37 37 38 37 38 41 42 40 42 38 34 33 34 35 38 40 43 47 49 50 51 50 47 46 46 48 49 52 52 52 55 59 63 65 67 68 69 70 70 68
37 41 41 41 44 45 44 41 38 34 32 34 37 35 32 35 38 38 37 38 37 37 34 34 36 39 37 39 42 43 46 48 46 46 47 46 46 48 51 52 53 56 58 60 62 63 66 68 68 69 69 66 64 65
36 36 40 43 38 40 44 47 47 44 41 41 40 41 42 42 42 39 39 39 39 37 37 38 39 40 40 42 43 45 46 46 47 48 49 48 51 53 54 57 60 62 63 64 65 67 68 67 68 67 63 64 65 65
30 34 36 37 39 41 40 40 40 45 48 47 44 44 45 44 44 45 45 44 43 41 41 42 42 43 44 46 47 48 48 48 52 53 52 56 59 61 61 61 62 63 64 65 66 65 67 68 64 61 62 63 65 66
18 21 27 32 35 37 37 39 39 40 40 40 43 45 45 44 44 45 46 47 47 48 48 49 50 52 53 54 54 53 53 52 53 54 57 59 61 61 60 61 61 61 61 62 65 65 63 60 59 60 61 64 66 66
14 15 17 20 24 30 35 37 39 40 40 40 40 40 41 44 46 47 49 50 51 51 52 53 54 55 56 56 56 56 55 56 55 55 56 56 55 55 55 55 57 59 61 61 58 55 56 57 59 61 63 63 63 62
16 16 16 16 16 18 21 24 27 31 38 42 44 44 44 44 46 48 49 49 50 51 51 51 51 49 47 46 46 47 47 48 49 50 50 51 52 54 56 57 56 55 53 52 53 55 57 60 61 61 61 61 58 55
20 20 20 20 20 20 20 21 22 25 27 29 32 37 43 46 48 47 47 48 50 50 47 43 40 39 38 39 41 43 45 47 49 51 53 53 52 50 48 48 50 50 52 54 56 57 58 59 59 59 59 56 55 55
26 26 26 26 26 25 25 25 26 27 28 29 31 31 31 31 33 36 40 43 44 44 43 41 40 42 43 42 41 42 44 46 48 49 47 46 46 46 46 48 50 52 52 53 54 55 56 57 56 55 55 55 56 58
32 32 32 32 32 32 31 30 31 31 31 32 32 31 31 31 31 31 31 31 31 32 34 35 34 32 32 34 35 36 35 36 36 37 38 40 43 45 47 49 51 51 54 55 56 56 57 55 54 56 57 58 61 65
39 38 38 38 37 37 35 34 33 32 31 32 32 31 30 30 30 31 32 31 28 26 25 25 26 27 28 27 27 29 31 34 37 40 43 45 46 48 48 50 52 54 55 56 56 56 53 54 55 57 57 58 61 63
44 42 41 40 37 36 33 31 31 30 29 28 27 26 26 23 23 23 23 24 23 22 22 21 21 22 23 25 28 30 33 37 41 43 45 46 47 49 51 53 56 57 55 54 56 53 53 55 55 55 56 57 59 59
44 39 35 32 32 32 30 24 23 22 21 21 21 20 19 22 22 22 20 19 18 20 21 22 22 23 27 29 32 35 39 42 45 47 48 49 51 52 54 56 56 58 59 59 54 52 53 54 54 54 55 55 54 51
33 29 31 33 34 33 28 20 19 19 19 17 18 19 19 22 24 22 21 20 21 22 24 26 28 32 35 37 40 43 47 48 49 50 53 54 55 55 55 57 59 60 58 54 52 53 54 55 56 55 53 52 50 45
26 25 25 31 34 28 22 21 21 23 19 18 17 16 17 18 20 21 21 26 28 29 30 32 35 38 41 45 48 50 51 53 54 54 55 54 54 56 57 56 55 53 53 53 54 54 56 57 57 56 54 51 48 44
19 18 22 23 23 21 22 22 21 21 20 16 16 19 22 24 25 24 26 28 29 31 34 39 42 46 49 51 52 52 53 52 51 52 56 56 55 55 54 53 53 52 52 53 55 56 57 57 56 54 52 50 48 44
15 20 24 23 24 24 23 19 21 20 24 25 24 25 26 26 27 29 31 33 35 38 42 46 50 52 53 53 54 53 52 52 52 53 54 53 53 54 55 56 56 55 55 56 57 57 57 56 53 51 50 49 48 45
16 19 23 26 24 21 21 24 25 21 21 23 28 31 31 32 33 35 37 40 44 47 50 53 54 55 56 56 55 53 53 54 54 54 54 56 58 59 59 58 58 58 57 57 57 56 55 54 53 53 52 50 49 47
13 17 20 22 21 22 22 22 22 23 23 25 27 28 30 33 37 41 45 48 52 54 54 55 56 56 55 55 56 57 55 55 53 52 55 57 58 57 56 56 56 55 54 54 55 56 56 55 55 53 50 49 48 45
13 14 16 19 21 21 22 22 22 24 26 28 31 34 39 43 46 49 51 52 53 54 54 54 55 56 56 55 53 52 52 52 54 56 57 56 56 56 55 53 54 55 57 57 57 57 57 56 55 53 49 47 45 42
10 12 14 18 21 23 26 29 31 34 37 39 40 44 47 49 50 50 50 51 53 54 54 53 52 51 51 51 52 52 53 54 54 54 55 54 52 50 51 52 53 54 55 55 57 56 53 49 46 44 42 40 38 36
23 25 27 29 31 33 35 36 38 38 40 41 42 43 44 46 45 45 46 47 48 48 49 49 50 51 52 52 53 53 52 52 51 50 48 46 47 49 50 51 50 50 51 53 50 46 41 38 35 33 31 31 32 33

GFSWCAN_500_spd_036.txt.gz
Wind_Speed
42 35 55 62 56 51 48 46 43 40 36 38 39 37 42 46 48 48 46 45 43 42 40 39 36 35 33 30 28 26 26 24 27 27 28 27 28 28 27 28 29 31 33 32 34 36 38 38 40 41 42 46 48 48
42 41 62 60 56 51 48 45 42 40 36 35 36 38 39 43 45 45 44 44 43 42 40 40 38 38 35 33 32 32 30 30 31 30 31 30 30 31 32 32 32 34 35 36 37 38 39 41 42 43 48 51 50 49
43 45 58 55 56 53 48 44 41 39 38 33 33 33 35 36 38 40 42 42 43 42 42 41 40 39 38 36 36 36 35 34 34 35 34 33 33 32 33 34 37 36 39 40 41 39 38 41 46 50 52 51 52 52
47 46 58 59 56 52 47 44 42 38 37 35 32 31 30 32 34 36 37 37 39 40 40 40 40 40 39 38 38 39 38 37 37 37 37 35 36 37 36 38 39 37 40 42 44 40 43 46 50 52 52 52 53 55
43 37 45 64 58 53 48 45 42 40 37 35 34 31 28 28 29 30 32 33 35 36 37 37 39 40 40 40 40 40 40 37 36 36 37 37 38 38 39 40 36 35 37 41 40 40 43 47 51 52 52 53 55 56
35 31 51 59 54 52 51 47 43 41 39 36 33 32 32 29 27 27 27 29 30 31 33 34 36 37 39 38 36 35 34 35 36 36 37 37 35 38 43 41 30 33 38 39 41 43 47 49 49 50 52 54 55 56
35 35 40 52 50 49 51 49 46 43 40 39 37 34 33 31 31 31 27 26 27 29 30 32 34 35 35 32 30 31 32 32 34 35 35 35 36 40 42 38 33 40 40 41 44 47 48 49 50 50 52 53 53 55
32 37 41 42 41 45 52 49 48 45 43 42 40 38 36 34 33 31 30 30 29 30 30 32 31 28 29 29 29 30 31 32 32 33 34 34 38 41 41 37 41 42 43 45 48 48 49 50 50 52 53 55 56 57
29 28 30 31 39 41 44 53 49 45 45 43 42 40 38 37 36 34 34 33 33 34 34 33 31 29 29 29 30 31 31 33 36 37 38 40 42 43 41 42 43 44 46 48 49 50 51 51 51 53 54 55 58 62
34 30 28 20 20 23 31 41 50 43 40 42 43 42 41 39 37 36 36 35 35 35 36 34 31 33 32 31 31 32 33 36 39 40 41 43 44 39 40 41 44 46 46 48 49 50 51 53 55 55 56 60 63 65
39 39 36 28 28 23 24 29 33 40 46 44 37 37 39 40 40 39 40 39 37 36 34 33 33 32 29 29 30 32 36 38 40 42 43 44 44 39 43 45 46 43 43 42 44 47 49 52 55 58 61 64 66 68
44 42 40 35 33 28 25 23 27 31 32 33 31 33 36 40 41 42 42 40 38 37 35 32 29 29 29 31 35 38 37 37 39 40 41 42 42 44 44 43 42 43 44 45 48 51 53 56 59 61 64 66 67 69
35 41 40 39 38 35 29 28 30 35 32 31 30 29 35 36 37 38 37 35 32 31 30 29 28 30 34 35 36 36 40 41 41 43 44 44 45 45 46 46 48 48 49 53 56 57 58 59 62 64 65 65 68 69
29 29 40 39 43 41 37 36 35 33 32 31 31 31 30 33 36 37 36 33 31 32 32 31 32 34 35 36 37 38 38 40 43 45 46 47 47 48 48 51 53 55 58 60 59 59 60 62 64 65 66 68 66 62
30 30 35 39 41 38 39 42 41 41 39 36 35 36 36 35 37 38 38 37 37 37 38 39 39 38 39 41 41 43 46 49 50 51 52 53 54 55 57 58 58 58 58 60 61 61 61 63 64 67 66 62 61 62
30 31 32 34 34 36 38 38 42 45 46 46 45 43 42 42 42 42 44 46 46 44 44 45 45 46 47 48 50 51 51 52 52 53 53 52 52 53 54 55 57 59 60 59 59 60 63 66 66 61 59 61 63 63
15 18 23 28 31 33 33 33 36 37 40 44 45 50 48 47 46 46 47 46 46 46 46 47 48 49 50 51 51 51 51 48 46 46 46 48 51 52 52 52 53 53 54 58 62 64 61 57 57 58 59 60 62 62
12 12 12 13 16 20 23 27 32 34 35 36 38 40 42 44 43 43 45 45 46 46 48 49 49 49 48 47 46 45 43 42 42 42 43 45 46 47 49 52 54 56 57 55 53 53 55 56 57 59 61 60 60 61
13 13 13 13 13 13 14 15 17 19 21 24 27 31 36 40 42 45 46 46 46 47 48 48 51 51 51 49 44 40 39 39 39 40 42 45 48 51 53 52 51 50 50 52 53 55 57 58 58 60 60 61 60 56
17 18 18 19 19 19 19 19 19 20 21 21 22 23 24 26 28 30 33 35 38 41 44 46 46 45 44 43 42 42 42 41 39 41 44 43 43 41 42 44 46 48 50 52 53 54 56 57 59 61 59 57 55 52
21 21 22 23 24 25 25 25 26 25 25 26 26 27 28 29 30 31 31 32 33 33 33 32 32 32 33 33 32 32 32 32 31 32 33 36 41 44 46 48 50 52 53 54 56 56 58 61 61 58 57 56 54 54
27 28 28 28 28 29 29 30 30 30 31 31 32 32 33 33 33 32 32 32 32 32 31 29 28 28 28 29 29 30 30 31 32 33 34 36 40 44 48 50 51 52 54 57 59 61 61 60 59 59 59 56 54 54
36 35 35 36 36 35 35 35 35 36 35 34 34 33 33 32 31 31 30 30 27 25 25 26 28 26 25 25 26 26 26 29 33 37 39 43 46 48 51 54 56 58 60 60 60 61 61 61 61 59 56 55 54 55
44 43 43 42 41 40 38 37 37 35 35 33 31 29 29 28 27 26 26 24 23 25 26 26 25 25 26 27 28 30 33 36 39 42 46 48 50 54 57 58 59 60 60 60 62 62 61 60 59 57 56 55 56 57
46 46 45 43 43 40 38 36 32 29 24 22 21 22 21 22 21 20 18 20 25 27 27 28 28 27 27 30 32 36 40 43 47 51 53 54 57 60 60 59 60 61 61 60 59 58 58 58 57 57 56 57 57 57
41 38 37 36 32 30 28 26 27 22 19 17 18 18 17 17 18 19 20 23 24 27 30 32 33 34 35 36 38 42 46 50 54 57 58 60 62 62 61 60 58 58 60 59 58 58 58 58 57 57 56 57 56 56
23 22 23 24 22 23 30 30 25 23 19 18 20 20 20 21 22 21 23 24 27 30 32 32 33 35 39 42 46 50 54 57 60 62 64 64 62 61 62 61 61 59 57 58 60 59 57 56 56 55 55 54 54 53
17 14 14 11 10 15 23 25 23 20 20 19 21 25 26 25 25 26 27 28 30 33 36 38 41 43 45 49 53 57 61 63 65 65 63 63 63 62 59 57 56 56 59 61 61 60 59 57 55 55 55 56 56 55
9 11 15 15 13 11 14 17 18 20 19 21 23 22 23 26 29 31 34 36 38 38 40 42 46 49 53 57 60 61 63 62 62 62 62 59 58 59 59 59 59 60 60 60 58 57 56 57 58 59 58 56 56 56
8 8 7 8 10 14 18 21 22 22 24 25 25 26 27 28 30 32 34 37 40 42 46 50 53 56 59 61 62 61 60 59 57 55 54 55 56 57 57 58 58 57 55 53 54 56 57 56 55 55 56 55 53 49
5 6 8 10 13 14 17 20 22 24 25 25 26 27 30 33 36 39 43 47 50 52 54 56 57 57 57 57 56 55 54 54 54 55 55 56 56 56 55 54 51 50 51 53 54 51 49 50 51 51 48 45 41 38
8 10 12 14 15 17 19 20 22 24 27 30 33 37 41 44 45 46 48 51 51 52 51 51 51 50 50 51 53 54 55 56 56 55 54 52 51 49 47 45 46 48 50 48 45 45 45 46 47 45 41 37 33 30
16 18 20 22 24 25 28 30 32 34 36 38 39 41 43 44 44 44 44 44 44 45 47 49 51 52 53 55 55 54 53 51 50 49 48 46 43 41 41 43 44 45 42 41 41 41 42 42 42 41 37 33 29 25

GFSWCAN_500_spd_042.txt.gz
Wind_Speed
51 45 53 50 47 43 39 33 31 40 37 34 35 34 38 41 43 47 48 48 49 51 47 44 41 37 34 32 31 29 29 27 25 23 21 19 18 20 20 22 24 28 30 30 33 36 38 37 38 41 44 45 46 47
51 50 48 45 42 37 32 32 35 32 30 31 33 33 36 41 39 42 44 43 49 48 45 43 39 36 36 35 33 32 31 29 27 26 24 24 24 23 23 25 26 30 32 34 35 36 38 41 43 44 45 47 48 48
45 44 42 40 35 31 34 37 36 32 30 31 29 31 36 40 46 33 38 45 45 44 44 42 39 38 37 35 34 32 32 32 32 31 29 29 29 29 30 31 33 34 35 36 38 36 40 44 46 46 47 48 48 48
40 40 37 33 31 28 36 36 36 35 30 31 31 32 39 44 49 46 35 40 43 43 43 40 38 37 36 35 34 33 32 34 34 34 34 34 35 35 35 37 39 36 35 39 42 41 44 44 45 46 47 47 47 48
36 36 33 37 27 33 36 35 36 34 33 29 30 31 35 40 41 46 46 42 41 41 43 42 40 38 37 36 36 35 36 38 39 38 38 39 39 40 41 42 37 33 36 41 44 43 44 43 43 44 45 46 48 51
36 34 29 34 31 39 40 36 33 30 36 35 31 33 34 36 35 37 37 38 38 38 38 38 38 38 37 38 38 38 38 39 40 40 41 41 40 42 46 44 30 33 38 40 41 42 42 43 44 45 47 49 50 52
31 25 30 34 41 38 38 39 32 28 32 33 30 30 29 28 28 31 30 30 32 34 35 36 36 37 36 36 36 37 39 39 41 41 40 38 37 41 44 39 32 35 37 38 40 42 43 45 47 47 48 49 52 54
29 23 30 43 47 37 45 36 35 33 33 33 32 30 28 28 27 27 27 28 29 30 32 32 33 32 33 32 34 35 35 37 37 37 36 35 38 38 38 32 35 36 39 42 43 45 46 46 47 48 49 52 54 52
17 25 42 47 30 41 36 33 32 31 30 31 31 30 29 28 27 27 26 26 27 28 29 28 26 25 29 27 29 29 31 32 34 34 34 35 36 37 35 35 38 40 42 43 44 46 46 47 48 49 50 50 50 51
23 26 42 48 38 35 36 35 32 31 30 28 27 27 27 25 24 25 26 26 25 26 25 25 24 24 24 24 26 29 30 33 35 34 36 37 37 37 37 38 40 42 44 45 45 45 44 45 47 49 51 53 55 54
23 22 29 49 42 39 35 32 32 32 29 27 26 25 25 25 25 25 26 27 27 28 27 25 24 24 24 26 28 32 35 35 38 38 36 38 35 36 37 39 41 43 44 44 45 46 47 48 49 52 54 56 58 60
20 22 23 27 36 45 41 38 34 31 26 29 29 29 28 28 28 32 33 33 33 32 29 26 26 27 28 30 33 35 36 39 40 39 40 40 38 38 39 40 41 42 43 43 45 48 50 52 55 56 56 57 58 60
23 21 22 25 28 34 34 47 42 44 36 33 31 31 34 37 41 42 39 35 33 31 31 31 33 34 35 36 37 38 40 40 40 43 43 41 38 40 42 43 44 45 47 50 52 53 54 56 58 58 59 58 57 57
30 28 23 22 21 24 26 36 50 48 41 36 38 41 42 45 48 46 42 36 31 31 32 33 33 33 33 35 37 37 39 40 42 42 41 41 42 44 46 48 51 53 54 56 57 58 60 60 60 58 57 57 58 60
32 28 27 30 26 23 26 31 36 29 28 31 32 36 41 38 37 39 42 38 32 31 31 32 33 32 32 34 35 37 39 43 43 41 42 46 48 51 52 53 56 58 59 58 58 57 58 59 59 58 58 59 61 64
39 34 28 30 30 30 31 29 27 25 24 24 26 27 28 29 29 29 27 28 29 30 29 30 30 32 34 37 38 40 42 44 45 47 49 50 52 54 56 58 58 56 54 55 56 58 57 56 56 58 61 60 58 58
33 37 35 34 34 32 31 29 27 27 27 28 28 27 27 28 31 32 32 34 35 35 36 37 39 41 42 44 45 45 45 46 49 50 51 52 53 55 56 55 54 54 55 56 55 53 56 58 56 52 53 54 57 60
29 32 35 39 39 39 40 37 36 37 37 36 37 37 36 35 36 38 39 41 43 44 46 44 44 44 44 44 44 46 48 49 50 51 51 52 52 50 50 51 51 50 49 51 53 51 48 52 53 55 57 57 60 63
25 26 26 28 32 35 37 37 37 37 38 40 42 43 44 44 45 46 47 48 49 49 48 46 46 44 44 45 45 46 47 47 47 47 46 45 45 45 47 48 49 50 48 47 50 48 48 49 52 55 59 63 65 68
15 17 18 20 23 25 27 28 31 31 32 34 36 35 37 40 40 40 39 39 38 37 36 35 34 35 35 36 38 39 40 41 42 42 41 41 41 42 42 42 42 44 46 45 45 45 49 53 58 63 67 69 71 73
12 13 14 14 14 15 17 17 17 18 19 20 21 22 22 23 24 25 26 27 27 28 29 30 32 34 37 38 40 41 42 43 42 42 40 38 37 38 40 42 42 43 43 45 49 54 58 61 65 70 73 75 77 76
12 13 14 14 15 16 17 18 18 19 19 20 20 21 23 24 25 26 28 29 30 32 34 36 39 41 43 44 44 45 44 43 41 38 36 36 38 38 39 42 45 47 50 52 56 61 64 68 73 77 79 79 78 75
17 17 17 17 17 17 19 20 21 22 23 24 25 26 27 28 30 31 32 34 36 38 41 43 44 44 44 44 43 43 41 38 36 36 38 38 39 41 43 45 48 51 54 58 62 66 70 75 79 81 81 78 73 68
26 26 26 27 27 28 28 29 29 29 30 31 32 33 35 36 37 38 39 40 42 44 44 44 43 42 42 40 38 35 34 35 37 39 40 41 44 46 49 53 55 56 59 63 68 73 77 80 82 79 75 71 70 69
33 34 34 35 35 36 36 37 37 38 39 40 41 42 42 42 42 43 42 41 41 41 40 39 38 37 36 34 32 32 34 36 38 40 42 45 48 52 53 55 59 63 66 70 74 77 79 78 74 71 71 70 68 65
40 40 41 42 43 43 44 45 45 45 45 45 45 43 42 42 41 39 34 33 32 31 30 30 29 28 30 32 33 34 35 37 40 43 46 49 51 55 58 61 64 68 73 76 77 75 72 70 69 69 66 63 61 58
44 46 47 49 49 50 50 51 50 48 45 42 40 37 35 32 28 24 24 25 26 26 26 27 28 30 32 34 36 38 40 42 45 47 51 54 56 59 62 66 71 74 74 73 70 68 68 66 63 60 59 58 55 56
24 24 25 26 26 28 24 25 26 27 28 29 25 20 20 21 21 21 22 23 25 26 28 29 32 36 38 39 41 43 45 47 49 52 55 59 63 67 70 71 71 69 69 68 67 64 61 59 57 56 52 50 52 51
3 4 2 1 2 6 8 10 13 15 19 22 18 19 25 25 23 22 23 24 24 26 28 32 36 39 41 43 45 47 50 53 57 61 64 67 68 68 68 67 67 66 64 62 60 58 57 55 51 48 47 48 48 46
7 8 8 8 8 8 9 9 10 12 13 18 24 21 21 21 22 25 27 30 32 35 37 39 40 42 44 47 51 55 59 61 62 62 62 62 63 65 64 62 60 59 58 57 55 54 51 48 46 46 47 48 46 44
3 5 6 7 7 7 9 10 11 12 13 15 17 20 23 26 28 30 32 35 37 39 41 44 46 49 52 54 56 57 56 57 58 60 62 62 60 58 57 56 56 55 53 51 49 46 43 42 42 43 45 44 42 41
10 10 10 9 9 10 11 13 14 16 17 19 22 25 27 29 31 34 37 40 43 45 46 47 48 48 49 51 53 55 58 60 60 57 56 55 55 55 54 53 51 49 47 45 42 40 39 41 41 42 43 41 39 38
16 17 18 18 19 20 21 21 22 23 25 27 30 33 35 37 39 39 39 38 38 39 41 43 46 50 52 55 56 56 54 53 52 53 53 53 51 50 48 46 45 43 41 39 39 39 39 39 41 41 39 37 36 35

GFSWCAN_500_spd_045.txt.gz
Wind_Speed
51 60 64 70 65 61 59 56 52 47 42 40 42 45 40 38 37 36 41 44 43 44 50 51 47 43 38 35 32 29 27 24 23 22 20 18 17 16 15 17 21 24 26 26 28 31 35 34 35 38 40 43 44 45
60 64 61 57 55 55 53 48 44 42 38 35 42 42 37 38 35 36 41 40 41 39 48 49 46 42 38 36 34 30 29 28 26 24 23 22 21 19 20 20 21 24 26 28 29 31 35 38 40 42 42 44 45 46
52 54 54 51 47 48 45 41 40 35 38 38 38 38 36 34 35 36 38 38 42 34 45 47 45 42 38 36 34 31 30 28 26 27 27 27 27 26 27 27 28 29 29 31 34 34 38 42 43 43 44 44 45 46
46 47 48 46 43 41 38 34 33 40 37 34 33 33 31 33 35 37 41 32 35 40 38 46 43 40 37 36 34 31 30 30 30 31 31 31 32 31 31 34 35 33 33 37 39 39 42 41 42 43 43 44 44 45
43 43 42 41 38 36 36 40 38 35 33 31 31 32 31 34 37 37 39 39 36 35 39 38 41 39 37 36 34 32 32 33 33 32 32 34 35 36 37 38 35 35 37 41 42 41 41 40 39 40 41 43 45 47
39 39 36 35 31 30 36 38 31 27 29 30 30 30 35 38 40 46 32 46 40 38 39 37 36 36 30 35 34 33 33 34 34 35 36 36 36 39 42 41 34 37 39 40 39 40 40 41 41 42 44 46 48 48
38 39 34 27 33 31 31 37 35 29 28 29 29 30 31 34 38 35 31 31 34 34 34 35 35 34 33 30 33 35 36 36 37 37 38 38 39 41 42 40 36 35 37 38 38 39 40 42 44 45 46 47 47 47
31 30 25 28 38 39 29 29 30 29 29 29 26 30 31 32 32 28 27 28 27 27 30 32 33 33 33 32 33 35 35 36 37 37 38 38 40 40 41 35 34 35 36 38 39 41 43 44 45 45 46 46 47 47
26 26 34 35 30 34 24 29 25 22 33 32 28 31 28 30 32 30 29 30 31 32 31 30 28 28 32 31 31 32 33 35 37 37 37 38 38 37 33 33 34 36 38 40 42 43 43 45 45 46 47 48 50 52
23 20 28 34 38 28 38 32 27 20 18 27 34 25 24 26 27 28 28 28 29 29 28 25 25 24 24 25 26 28 30 32 34 33 34 35 35 33 33 35 36 39 40 41 42 44 45 46 47 48 49 50 53 55
22 22 29 37 39 36 39 33 26 21 21 22 26 27 25 25 24 24 23 23 24 23 20 19 18 19 20 22 25 30 31 33 36 36 36 37 34 33 34 36 38 39 41 42 43 44 45 46 48 50 53 55 56 58
19 22 36 43 34 35 34 36 30 24 26 24 18 20 20 21 21 22 22 21 20 19 16 16 18 20 22 25 28 30 32 35 37 37 36 36 35 35 37 38 39 39 40 42 44 46 48 51 53 54 55 58 60 61
18 19 31 42 33 32 35 34 25 25 26 29 23 23 22 22 26 26 23 21 20 19 20 21 23 25 27 30 32 34 37 38 38 41 41 37 34 35 37 38 39 41 44 46 49 51 52 53 56 59 59 60 61 61
16 20 21 24 32 35 31 33 35 35 34 31 26 28 30 31 29 24 24 25 26 26 27 29 32 32 31 32 34 35 38 39 40 38 35 34 37 40 42 42 44 47 49 51 53 55 58 60 60 58 58 58 58 56
23 20 20 21 23 26 28 32 33 32 31 35 33 32 30 27 28 29 32 33 35 37 39 34 32 33 34 36 36 36 37 39 37 37 39 40 42 44 46 49 51 53 55 56 57 59 58 58 57 57 57 56 55 53
28 25 25 24 23 23 20 21 26 29 39 37 37 39 37 35 35 36 36 35 35 35 36 38 36 32 29 30 30 31 32 35 39 41 43 45 47 49 51 53 55 56 57 57 58 57 56 56 55 54 53 50 49 51
32 33 30 26 23 24 23 22 20 21 27 34 35 36 32 28 27 25 25 24 23 26 27 29 30 31 34 35 35 37 39 40 43 44 46 48 51 53 56 57 58 58 56 54 55 54 52 52 51 48 49 51 49 51
34 35 34 30 28 31 27 26 25 25 28 32 29 29 29 28 27 26 26 26 27 28 30 34 36 37 38 40 41 42 44 45 46 46 47 48 49 50 50 50 50 51 51 52 52 54 53 50 48 51 53 53 53 56
37 42 40 37 34 32 32 32 33 34 33 33 31 31 32 33 33 34 35 36 36 37 37 39 41 41 42 43 43 44 43 41 39 38 39 40 42 44 45 45 46 48 49 49 47 46 48 51 52 53 55 57 60 64
21 23 33 39 42 43 42 43 41 38 41 41 39 39 39 40 41 42 43 44 44 42 41 39 38 36 35 34 34 33 33 35 36 39 42 44 45 46 47 47 45 44 43 44 46 48 49 52 55 58 60 62 66 70
13 14 15 18 21 26 28 29 34 34 34 34 36 37 37 39 38 37 36 34 31 27 27 27 27 29 30 31 33 35 38 40 43 45 46 46 45 44 43 42 41 42 44 45 47 49 52 54 58 62 65 68 72 78
11 12 12 13 15 16 18 19 19 19 21 22 22 24 24 24 25 26 26 25 26 27 28 30 31 33 35 37 39 42 44 46 48 48 47 46 44 43 40 40 41 43 45 47 50 54 58 61 63 66 70 74 78 82
12 12 13 13 14 15 16 17 19 20 21 22 23 23 24 25 26 26 26 27 29 31 33 35 37 39 42 44 46 47 47 48 47 46 45 41 39 38 40 42 43 45 48 52 56 58 61 64 68 71 75 80 83 85
16 17 17 18 18 19 19 20 21 22 23 24 24 26 27 28 29 31 32 34 36 38 40 41 43 45 46 47 46 46 45 44 41 39 38 38 38 39 41 44 47 50 53 56 59 63 67 69 73 78 81 83 82 78
25 25 26 27 28 28 29 30 31 32 32 33 34 35 36 37 38 39 39 41 42 43 44 45 46 46 45 44 41 38 35 34 34 36 37 39 40 42 45 48 51 54 58 62 64 68 72 76 79 79 79 77 74 70
31 31 32 33 34 35 35 37 37 39 39 40 41 42 43 44 45 45 45 45 45 44 43 42 40 38 35 33 32 31 32 33 35 37 40 43 45 48 52 55 57 59 62 66 70 74 76 75 74 74 71 66 64 63
36 37 39 40 41 42 44 45 47 48 49 49 50 50 50 50 50 47 44 41 38 35 33 31 30 31 31 33 34 34 35 38 41 43 45 47 50 53 56 59 62 66 70 72 72 72 71 71 67 63 61 61 59 56
36 39 40 41 43 45 43 43 44 45 45 45 45 42 41 39 33 29 27 27 27 26 27 28 30 31 32 33 35 36 39 43 45 48 50 53 56 59 62 65 68 69 69 69 70 68 64 60 58 58 57 54 51 47
8 8 11 11 10 8 6 6 5 7 11 16 19 21 22 20 20 22 25 25 27 26 26 28 30 33 36 39 41 44 46 48 51 54 56 59 61 63 64 65 66 67 67 64 61 59 58 57 56 53 50 47 43 43
9 7 9 9 8 9 9 9 10 12 9 9 11 21 18 16 15 17 22 26 28 28 31 34 37 39 42 45 47 49 52 54 56 56 58 59 60 62 64 65 63 60 59 58 58 58 56 53 50 46 43 42 42 42
7 7 8 9 10 10 10 9 9 8 8 9 11 12 15 21 24 25 27 29 31 34 36 39 41 43 44 45 46 47 49 51 53 56 59 61 63 61 59 58 57 57 57 56 54 51 47 44 43 42 42 42 42 43
11 12 13 13 13 13 13 13 13 14 15 17 18 20 21 23 26 29 32 34 36 38 40 40 40 40 40 43 46 50 53 56 59 60 59 57 56 55 55 55 55 54 52 48 45 43 42 41 41 40 41 42 41 39
19 20 21 21 22 23 23 24 24 24 24 25 26 28 30 31 33 35 37 38 38 37 36 37 39 42 46 50 54 57 59 58 56 54 54 54 54 55 54 52 50 47 45 43 43 42 40 41 42 41 39 37 37 37

GFSWCAN_500_spd_048.txt.gz
Wind_Speed
75 75 74 64 68 57 65 69 70 71 66 63 57 55 52 49 47 45 46 44 44 47 47 45 50 53 49 44 41 35 31 27 24 22 19 16 14 13 12 12 14 18 20 21 23 26 29 29 31 33 35 37 40 42
52 46 56 47 49 66 66 68 67 62 60 58 56 52 48 46 46 42 44 43 43 47 44 43 48 50 49 45 38 35 32 29 27 25 23 20 19 18 16 16 19 20 22 23 25 28 32 34 36 38 39 41 43 44
58 67 65 66 75 72 69 62 60 58 55 52 48 45 44 44 42 40 41 43 41 44 41 42 46 48 46 44 41 37 33 32 29 27 25 24 23 23 23 23 25 26 26 28 31 33 36 39 40 42 42 43 43 43
62 63 67 68 66 63 59 56 53 50 48 46 44 43 43 42 41 37 39 37 38 36 36 38 43 47 45 42 40 37 34 32 30 28 27 27 26 27 28 30 30 30 32 35 36 38 40 41 42 43 43 43 42 42
60 60 61 60 59 58 54 49 46 41 39 41 44 44 41 40 39 36 34 34 39 36 35 33 41 44 43 41 37 35 33 31 30 30 30 30 30 32 33 34 34 35 36 39 40 40 41 42 42 42 42 42 42 43
50 49 48 46 45 42 42 42 39 36 41 43 44 41 39 36 34 34 37 37 36 30 32 32 36 41 41 38 36 35 34 32 33 33 32 33 33 35 36 37 36 38 39 40 41 41 42 42 41 41 41 42 44 46
44 45 44 44 46 42 37 36 37 37 37 36 37 38 34 33 35 39 33 33 32 37 35 30 33 39 39 36 34 35 35 36 35 35 35 35 36 38 39 40 38 38 40 39 39 40 40 40 41 42 43 45 46 47
34 34 34 35 40 37 36 34 32 31 32 34 36 35 34 35 35 35 33 29 35 31 25 31 33 34 37 37 36 33 32 31 36 36 37 37 39 40 41 37 37 37 37 38 39 40 40 42 43 44 45 46 48 49
27 29 30 34 35 36 37 32 30 34 34 38 37 35 34 34 36 36 31 28 36 39 35 31 32 32 33 34 35 36 37 37 36 36 36 37 38 38 35 34 35 34 35 37 39 41 43 44 44 46 47 48 49 49
25 29 33 32 27 26 34 29 31 29 30 35 37 37 36 33 28 26 29 26 25 25 27 27 29 30 31 32 33 35 35 36 37 36 37 38 36 32 31 32 35 37 39 40 41 42 44 45 47 48 48 49 50 52
25 28 25 26 28 23 31 26 28 31 26 32 28 31 31 31 31 26 25 25 25 27 26 24 25 25 26 28 30 33 33 35 36 35 36 35 32 31 32 34 36 39 41 42 44 45 46 46 47 48 50 52 54 55
23 25 29 30 27 31 35 28 22 19 20 30 30 28 31 28 28 26 25 25 24 21 20 20 22 24 25 26 28 30 31 33 35 34 34 34 32 32 35 38 40 41 42 43 43 44 45 46 48 51 53 54 56 59
21 20 22 28 32 28 24 37 24 19 18 18 21 20 20 22 25 26 23 20 19 19 20 21 20 20 21 24 25 27 30 32 32 35 35 33 34 37 38 39 40 41 42 43 44 45 47 50 52 55 58 59 61 60
19 16 15 20 31 28 28 22 27 23 20 22 19 17 19 21 18 16 16 16 17 18 19 20 21 23 24 27 30 31 33 34 35 34 34 33 35 36 37 38 40 41 43 45 47 50 53 55 58 59 59 58 57 57
14 15 15 22 30 28 24 29 33 26 27 22 29 31 25 20 22 24 22 22 22 22 23 24 25 27 30 34 34 34 35 38 38 35 36 36 37 37 39 41 43 45 47 50 53 56 58 57 56 54 54 54 53 52
18 22 23 27 30 30 31 29 29 32 33 31 33 29 28 27 26 24 23 23 25 27 29 32 34 37 36 37 37 37 36 34 33 34 36 38 39 41 44 46 49 51 53 53 53 52 52 53 54 54 54 54 51 47
22 23 25 23 24 26 27 27 29 31 33 32 28 30 32 31 29 30 29 28 29 31 30 31 31 31 31 31 30 31 33 35 37 40 42 43 45 47 49 50 50 49 48 48 50 51 53 53 53 53 51 47 49 51
28 27 25 21 22 22 22 24 23 27 32 33 30 30 33 34 34 31 27 27 26 23 23 24 25 27 29 32 34 37 39 40 42 44 46 47 47 45 44 43 43 45 48 50 52 53 54 54 53 50 49 51 53 55
32 30 28 25 26 24 20 22 22 24 23 24 25 26 27 26 26 29 30 30 29 29 30 31 32 32 34 36 38 40 42 44 43 41 39 37 37 39 41 44 48 50 52 53 55 54 53 52 51 52 52 53 55 58
37 36 36 36 33 31 30 30 30 31 31 31 28 31 30 31 32 33 33 33 33 33 34 34 35 37 39 41 40 38 35 34 33 33 34 36 39 43 47 50 52 54 54 53 52 51 50 50 51 52 53 56 60 62
26 33 41 43 43 38 40 40 36 38 37 37 39 39 40 40 41 42 43 42 42 41 38 36 35 33 32 31 30 30 31 32 34 37 40 43 46 48 50 51 51 50 49 48 47 47 48 50 51 54 57 60 63 67
11 13 13 17 21 25 30 37 35 40 42 39 44 47 46 43 39 35 32 31 29 27 27 27 28 29 30 31 32 34 35 38 41 44 46 48 49 49 50 49 48 46 45 45 46 47 49 52 55 58 61 65 68 71
12 12 12 12 12 14 14 15 17 19 21 23 23 24 25 25 27 26 26 27 28 28 29 29 30 31 33 35 38 40 43 45 46 48 49 49 49 48 46 44 43 43 44 46 48 50 53 56 60 63 66 70 74 78
12 13 13 13 13 14 15 16 17 18 20 21 23 24 25 26 27 28 28 29 30 32 33 35 37 39 41 43 44 45 47 48 48 48 47 45 42 40 40 40 42 44 46 49 52 55 58 61 64 68 72 76 79 78
17 17 18 19 19 20 20 21 22 23 24 25 27 29 30 31 32 34 35 37 38 40 42 43 45 46 47 47 47 47 46 45 43 41 38 37 37 38 40 42 45 47 50 53 56 60 63 67 70 74 76 74 74 71
23 24 25 25 26 27 28 29 30 31 32 34 35 36 38 39 40 41 42 44 45 46 47 48 48 48 47 46 43 40 38 36 35 36 38 40 41 43 44 47 49 52 55 59 62 66 69 71 72 71 71 68 65 63
28 29 30 31 32 32 33 35 36 37 38 40 42 43 45 46 47 48 49 50 50 50 48 45 42 39 36 33 33 34 35 36 38 39 40 42 44 47 50 53 55 58 61 64 66 67 68 69 69 66 63 61 60 59
30 31 32 34 35 37 37 39 41 43 44 46 47 47 48 48 47 45 43 38 34 29 28 28 28 28 29 30 31 33 34 37 40 42 45 47 50 53 55 58 60 62 64 65 66 67 67 64 61 60 59 58 55 51
21 21 23 19 21 21 20 19 16 15 13 14 17 19 23 25 21 17 19 21 22 25 27 29 30 32 34 34 36 38 41 42 45 48 51 52 54 55 57 59 61 63 65 66 65 62 59 58 58 57 55 50 46 44
4 3 4 3 3 4 6 6 6 5 8 9 8 9 11 13 18 18 18 17 18 21 24 28 31 34 36 38 41 43 46 49 50 51 51 52 53 55 59 62 64 65 63 60 59 58 57 57 55 50 46 44 42 40
5 6 7 7 8 9 10 11 11 12 13 13 14 14 15 14 17 22 24 25 28 30 32 34 35 38 41 44 46 47 47 47 48 50 52 55 59 62 65 65 62 59 58 57 58 57 54 50 47 45 43 42 40 41
9 10 11 12 13 14 15 15 16 17 18 19 20 20 21 22 23 25 27 29 32 34 37 39 41 43 44 44 44 45 47 49 52 56 59 62 65 65 63 60 59 58 59 57 53 50 47 46 45 43 42 41 41 41
19 20 21 23 24 25 25 26 27 27 28 28 29 29 30 31 32 33 34 36 37 38 39 40 40 41 42 44 47 50 53 57 60 63 64 64 62 60 60 60 58 55 51 49 47 46 45 44 43 42 42 43 43 42

GFSWCAN_500_spd_051.txt.gz
Wind_Speed
35 34 37 37 36 44 57 79 94 98 94 95 92 88 77 73 67 55 55 56 56 56 56 54 53 53 53 52 50 46 42 41 37 32 28 23 20 16 13 13 13 14 16 17 20 23 25 23 26 26 29 31 35 38
40 39 36 34 35 49 78 84 84 75 84 81 83 68 58 67 63 57 56 51 49 49 52 53 50 49 52 52 50 46 41 39 33 33 29 26 23 19 18 17 16 17 17 18 20 24 25 27 29 31 34 37 40 42
55 53 50 52 61 82 76 49 62 77 75 67 73 63 57 62 61 53 51 48 46 48 51 52 52 49 51 51 49 45 43 39 33 32 29 30 26 23 22 22 21 22 22 25 26 30 32 34 36 38 40 42 44 46
62 60 61 56 58 45 53 60 64 67 64 70 62 64 60 58 56 48 49 46 43 46 48 50 49 46 48 50 51 48 43 40 36 35 34 31 27 27 26 27 27 27 27 30 31 35 37 39 39 42 44 45 46 46
53 53 58 58 53 50 43 49 60 67 65 63 61 58 55 52 48 43 43 42 42 49 49 46 42 41 43 47 49 48 43 40 39 37 35 31 30 31 31 31 31 31 34 35 37 37 40 43 44 45 46 47 46 46
57 58 55 56 58 60 66 65 64 62 59 57 55 53 50 48 42 40 38 38 37 45 39 44 40 38 41 44 44 45 44 42 40 38 34 34 34 34 35 34 35 36 38 39 41 42 44 45 46 46 46 45 45 46
60 61 59 58 59 58 55 52 51 49 48 47 47 48 48 43 38 34 35 32 34 36 32 39 36 37 39 40 42 41 39 38 38 36 36 36 36 37 37 39 36 39 41 42 43 45 46 45 46 45 45 45 46 48
50 49 48 48 47 46 44 43 43 43 43 43 44 44 43 43 35 31 33 34 33 36 32 34 35 35 37 38 39 39 38 37 38 38 38 38 39 40 41 40 40 42 42 43 44 44 45 45 45 45 47 48 48 49
41 39 37 38 38 37 36 34 36 40 42 43 42 42 44 43 38 33 31 34 35 37 28 29 39 34 36 37 38 37 37 38 39 39 39 40 40 41 41 41 41 41 42 42 42 43 44 45 47 47 48 48 49 49
34 34 34 34 32 33 34 36 37 36 41 40 40 40 42 40 38 34 26 32 35 33 30 33 34 35 34 36 37 38 39 39 41 39 39 41 42 41 40 40 40 39 40 41 43 44 45 46 48 48 49 48 48 49
29 32 31 27 31 30 33 31 33 32 32 36 38 35 36 37 36 30 27 28 34 28 29 30 27 26 28 30 33 35 36 38 40 39 41 43 42 37 37 36 38 40 42 44 45 46 47 48 48 48 47 48 51 53
30 32 19 28 23 24 30 33 30 33 35 34 35 33 36 34 33 31 33 31 24 24 22 23 24 23 25 28 31 33 35 38 41 40 39 40 34 32 33 36 40 42 44 45 47 47 46 46 46 48 50 53 55 57
20 17 20 24 25 26 30 24 23 25 26 31 32 33 33 32 33 31 28 23 22 16 17 20 22 24 28 32 32 32 34 36 35 36 36 33 31 34 37 39 40 41 42 42 42 43 44 47 49 51 53 55 58 60
17 18 20 23 25 32 31 24 27 29 29 27 26 30 29 29 30 31 24 21 20 20 23 25 27 27 25 25 27 28 29 30 33 33 32 31 34 37 39 40 41 41 40 40 42 44 46 48 51 54 56 55 55 55
20 18 17 20 27 27 28 30 23 20 21 26 30 29 27 26 22 23 25 25 24 23 21 21 22 23 24 27 27 29 32 34 35 35 34 36 39 39 38 36 37 39 41 43 45 48 51 52 51 50 51 54 56 58
20 17 14 16 25 29 27 30 34 30 25 20 20 18 19 20 21 19 18 21 20 21 23 24 24 25 27 30 32 35 38 39 36 35 37 37 37 37 39 41 43 44 47 49 49 49 48 47 49 51 55 58 60 59
18 18 17 20 22 26 24 24 18 20 27 24 23 22 26 27 28 24 21 22 22 23 24 24 25 30 33 36 37 36 35 34 35 33 34 37 39 41 43 46 48 50 50 48 45 45 47 51 55 58 60 61 59 58
18 20 23 23 22 24 24 25 27 29 31 27 30 29 25 28 31 29 29 30 31 30 30 30 30 33 33 33 30 29 30 32 34 36 39 41 43 46 49 49 49 47 44 44 46 50 54 57 59 60 60 58 57 56
23 23 25 24 20 21 23 26 27 27 26 27 31 32 32 29 28 30 32 35 36 34 32 30 30 29 30 31 32 33 34 36 38 40 42 45 47 47 45 44 43 44 46 49 52 55 57 59 59 59 58 57 55 56
27 27 25 25 26 27 27 23 22 24 25 25 26 27 29 30 29 30 30 30 31 31 31 31 33 34 35 35 36 37 38 41 43 44 44 43 42 41 41 43 46 49 52 55 57 59 59 60 59 56 55 56 56 57
23 34 33 30 30 30 31 27 26 27 26 26 28 29 27 27 28 31 31 32 33 34 35 36 37 39 41 41 41 40 40 38 38 38 38 39 40 42 45 48 51 54 56 57 58 58 57 56 55 53 53 55 57 59
11 17 29 40 38 37 37 36 36 36 35 34 33 32 32 34 36 38 39 40 41 41 42 42 41 40 37 35 34 34 34 36 37 38 40 42 45 48 51 53 54 56 57 56 54 53 51 50 51 53 55 57 59 62
6 6 9 14 19 30 29 35 39 42 40 43 43 41 42 43 42 43 40 38 34 32 30 30 30 31 32 33 34 35 36 38 41 44 46 49 51 53 54 55 55 53 51 49 48 48 49 51 53 55 58 61 64 68
10 10 9 10 11 11 13 13 15 17 18 20 20 21 22 22 23 24 24 26 28 29 30 31 33 34 35 37 39 42 44 47 49 50 52 53 54 54 53 51 48 46 45 46 48 50 51 54 56 59 62 66 69 73
14 13 13 13 14 14 14 15 15 17 18 19 21 22 23 25 26 28 28 30 31 33 35 37 40 42 44 46 48 49 51 51 52 53 53 51 49 46 44 44 45 47 48 49 50 53 55 59 61 64 67 70 71 72
20 20 20 20 21 22 22 23 24 25 26 27 28 30 31 32 34 35 37 38 40 42 44 45 47 49 50 52 53 53 52 51 49 46 43 42 42 43 44 45 46 47 50 52 55 57 60 62 65 67 69 70 71 69
25 25 25 25 26 26 27 28 29 31 32 33 34 36 37 39 40 42 44 46 47 49 50 51 53 53 52 50 47 45 41 39 38 39 40 40 41 43 46 48 49 51 54 56 58 60 62 64 67 69 70 69 65 62
24 25 26 27 28 29 30 31 32 34 35 37 39 41 42 44 47 49 50 51 52 51 50 47 44 40 35 32 32 33 35 36 37 39 42 44 47 49 50 52 55 56 57 59 60 61 64 67 70 70 66 63 61 61
22 24 24 25 27 28 29 29 29 30 28 28 29 29 30 31 31 31 30 30 28 25 26 25 26 28 30 32 34 37 41 42 44 46 47 48 50 53 55 56 57 58 59 61 63 66 70 71 68 65 62 62 60 56
12 13 12 11 10 9 9 10 9 8 8 9 10 11 11 13 14 14 13 16 19 22 25 25 24 28 31 33 36 39 42 44 46 49 51 54 55 56 57 58 59 61 63 66 69 71 70 67 64 63 60 56 51 48
4 4 5 6 7 8 9 10 11 12 12 13 15 16 17 18 19 20 20 21 21 24 28 32 35 37 39 41 43 45 48 50 51 53 54 55 56 58 60 62 65 67 70 71 70 68 66 64 59 54 51 49 47 45
9 10 11 12 13 14 15 16 17 18 20 21 23 24 25 27 28 29 30 30 31 33 35 37 39 41 43 45 47 48 50 50 51 53 56 58 61 64 67 69 71 71 70 68 65 60 55 52 51 49 48 47 47 46
19 21 22 23 24 25 26 27 28 29 30 31 32 33 34 34 35 35 36 37 38 38 39 40 41 42 43 45 46 48 50 53 56 59 63 65 68 69 69 68 66 62 58 55 54 53 53 53 53 53 53 52 51 50

GFSWCAN_500_spd_054.txt.gz
Wind_Speed
33 33 38 38 39 37 42 45 40 48 62 86 97 93 92 87 83 76 71 55 55 44 45 55 47 51 54 51 49 46 48 48 46 43 40 35 29 24 21 17 14 17 16 18 20 20 21 19 21 21 23 25 28 31
32 36 35 36 36 39 44 41 40 51 66 92 99 92 92 88 81 75 72 51 58 50 41 44 54 58 58 47 55 47 46 44 43 44 40 36 32 27 24 20 19 18 17 17 18 20 19 21 22 23 27 30 34 36
27 29 29 31 33 38 36 39 45 54 77 97 96 92 83 79 78 75 70 65 62 39 46 54 53 55 55 60 45 48 49 46 45 45 41 39 34 30 27 23 24 20 21 22 23 24 27 26 27 30 34 36 39 41
50 40 32 30 28 27 31 37 52 78 92 89 88 90 86 81 72 65 65 57 53 56 38 46 53 58 55 54 51 47 48 45 42 41 44 42 37 33 29 28 27 27 25 26 28 29 33 34 32 36 39 41 43 45
58 53 45 40 38 41 42 51 76 88 86 87 78 72 76 71 64 67 65 46 39 53 55 46 51 54 51 49 52 47 48 48 44 43 46 43 38 34 31 31 30 31 31 32 33 33 37 39 40 41 43 45 46 48
57 56 53 54 53 63 71 72 94 68 72 71 62 64 63 65 66 60 54 58 46 45 43 43 47 50 49 44 41 49 48 51 49 46 48 44 38 36 35 34 34 34 34 37 39 39 41 43 44 46 47 48 49 49
48 45 45 52 52 54 54 53 57 65 64 56 48 52 62 60 56 55 52 51 48 40 38 42 45 48 46 44 42 43 47 49 47 46 46 45 41 37 37 37 36 36 38 40 43 44 45 46 47 48 49 50 49 47
46 51 52 49 47 49 49 59 61 63 64 52 53 59 60 58 54 46 41 41 42 37 38 33 43 45 47 45 42 43 45 48 48 47 46 44 41 40 41 40 38 40 42 44 45 46 48 48 49 49 48 48 48 49
43 48 48 52 54 55 58 57 57 58 55 52 51 50 49 47 41 34 36 32 40 33 33 32 30 38 41 39 39 39 41 42 42 43 43 42 42 43 42 40 42 43 44 45 45 47 49 49 48 48 48 48 49 51
38 40 40 41 42 44 45 47 49 50 50 50 48 48 47 40 36 30 26 32 35 37 33 38 13 35 39 37 37 38 38 38 39 41 42 45 44 42 42 43 43 43 45 47 48 48 48 48 48 48 49 51 52 51
25 28 30 32 32 35 38 37 38 42 45 50 53 54 44 40 30 34 30 33 34 32 35 36 25 35 36 38 36 36 37 40 41 42 43 43 42 40 40 41 43 45 46 47 48 47 47 47 49 50 51 49 48 49
23 20 24 26 26 30 33 36 37 38 38 41 44 48 45 40 38 37 30 25 27 25 23 26 23 25 34 35 37 38 39 39 42 42 42 43 38 38 39 39 41 43 44 45 45 46 48 49 48 47 48 49 50 52
25 19 16 23 26 29 34 30 30 34 36 38 41 43 43 46 42 35 31 25 23 22 23 20 22 23 25 29 37 36 38 41 39 39 39 38 35 34 34 37 39 42 43 43 44 45 46 46 46 46 49 51 54 57
14 20 27 17 16 23 28 26 25 25 29 32 32 33 36 36 33 29 25 21 20 19 21 21 21 21 20 21 23 25 27 29 32 34 34 29 29 31 34 38 40 41 42 43 43 42 42 45 47 49 53 55 56 54
11 15 14 20 20 21 23 15 20 21 26 29 27 28 30 34 27 27 28 27 23 22 21 22 23 24 26 28 28 28 28 30 30 28 27 29 33 38 40 42 43 43 41 39 41 44 46 48 51 53 53 52 51 53
12 11 13 18 21 28 23 26 14 14 23 24 26 30 30 28 28 25 23 29 28 25 24 24 25 25 25 26 24 25 25 25 28 31 35 39 41 41 41 42 40 38 40 43 45 48 50 52 51 49 49 51 55 59
13 14 16 17 24 27 28 27 25 18 17 26 25 22 24 27 27 24 21 21 22 24 25 25 24 24 24 25 23 25 29 32 36 40 42 41 40 37 35 36 39 42 45 48 50 51 51 49 48 50 53 57 60 62
14 14 12 15 21 24 22 26 24 27 26 25 22 21 20 19 20 22 22 23 23 22 23 25 27 28 28 29 30 33 35 37 38 37 34 33 34 36 39 42 44 47 51 53 52 50 49 49 52 55 59 61 63 65
18 17 14 20 21 22 27 27 27 25 24 23 25 25 25 25 24 23 26 30 30 29 28 29 31 33 34 34 34 34 34 33 33 35 36 38 40 41 44 47 50 52 52 50 49 49 52 54 57 60 62 64 65 64
21 20 18 25 23 23 24 26 25 26 28 29 29 30 30 28 29 29 27 28 29 32 33 35 36 38 37 36 35 35 35 35 36 38 40 43 45 47 50 51 49 48 48 49 51 54 57 59 61 63 64 64 62 61
25 24 23 23 28 25 24 24 23 22 21 25 26 25 25 26 27 28 30 31 31 31 29 30 31 33 34 35 36 37 39 41 42 43 44 46 46 46 46 46 47 48 50 53 56 59 61 62 63 63 62 60 58 58
23 25 25 27 29 27 27 29 28 29 26 26 25 25 26 27 29 28 27 28 30 32 35 37 37 38 39 41 43 42 40 40 40 41 42 43 44 45 47 48 51 53 56 58 60 61 62 61 60 58 56 57 58 59
19 20 21 22 27 32 34 33 34 34 34 34 35 35 35 33 33 32 33 34 36 38 41 42 43 43 41 40 38 37 37 38 39 41 42 44 46 49 52 55 57 58 59 60 61 60 58 56 55 55 57 58 59 61
12 14 14 14 16 16 22 30 39 42 41 40 38 37 38 38 39 40 41 41 40 38 35 33 31 31 33 35 36 38 39 40 42 45 48 51 54 56 57 58 59 60 59 58 56 54 53 54 56 56 57 59 62 64
13 12 13 12 11 9 9 10 11 13 13 16 18 18 18 21 23 23 24 26 26 28 30 31 33 35 36 38 41 43 46 48 51 53 55 57 58 59 58 57 54 53 52 51 51 53 54 55 57 58 61 63 64 65
18 17 16 15 16 16 15 16 16 17 17 18 19 20 22 23 25 27 29 31 33 35 37 39 40 43 45 47 49 51 54 55 56 57 57 56 54 51 49 47 46 49 50 51 53 55 57 59 61 63 64 65 67 68
24 24 23 23 23 23 23 23 24 25 25 26 27 29 30 31 33 35 37 39 40 42 44 46 48 50 52 54 55 56 56 55 53 49 45 42 42 44 46 47 49 52 55 58 59 60 61 63 64 66 67 68 69 71
22 23 25 26 27 28 28 29 30 31 32 32 33 35 35 37 39 41 43 45 47 49 50 52 53 53 53 51 46 42 40 38 37 40 42 44 45 48 52 54 55 56 58 60 62 63 65 66 67 68 70 71 73 76
21 22 22 23 24 25 27 28 29 31 32 33 34 36 37 39 38 38 39 39 39 38 36 35 35 32 32 32 33 33 34 36 39 42 46 48 49 51 54 56 59 61 62 63 64 65 67 68 70 72 75 76 75 72
17 18 18 19 19 19 19 21 20 20 21 20 20 19 18 17 17 17 17 18 19 19 19 20 22 25 29 32 35 37 39 41 44 48 51 54 56 58 59 61 62 62 64 65 67 69 72 74 76 76 73 69 62 57
7 7 7 8 9 9 10 11 11 12 13 14 15 16 17 19 20 22 23 25 26 28 29 31 32 34 35 37 40 43 46 49 51 54 56 57 58 59 60 61 63 65 68 71 74 75 75 72 68 63 60 59 58 58
9 10 11 12 13 15 16 17 18 19 20 21 22 24 25 27 29 31 33 34 36 37 38 39 40 42 43 44 46 48 49 50 52 53 54 56 59 62 65 68 70 72 72 70 67 65 63 63 63 63 60 57 55 52
17 19 21 22 23 25 26 27 28 29 30 31 32 33 34 35 35 36 36 37 37 37 37 37 37 38 38 40 42 45 48 52 55 58 61 64 65 66 65 64 63 62 63 63 62 60 57 56 55 54 53 51 50 48

GFSWCAN_500_spd_057.txt.gz
Wind_Speed
32 27 29 31 30 34 37 35 61 61 61 66 83 93 90 88 81 74 68 63 60 55 43 51 47 47 46 43 44 47 48 44 54 49 40 41 39 35 33 28 21 21 21 18 19 20 21 21 20 20 21 22 24 25
26 24 32 30 30 33 44 58 58 57 55 62 76 91 92 88 81 72 69 62 60 54 36 35 37 40 43 45 47 47 39 36 37 34 40 41 39 39 34 32 26 22 21 18 18 17 17 17 16 16 22 24 26 28
24 28 28 29 29 42 57 50 50 51 49 56 75 92 92 86 80 73 68 62 60 56 36 36 31 35 44 47 44 45 45 44 49 42 40 41 40 40 39 33 31 26 22 21 20 21 23 22 21 23 28 30 32 34
26 27 30 33 33 40 49 48 46 43 48 53 72 94 92 87 82 72 61 51 40 38 45 39 51 48 43 43 52 50 48 52 55 45 45 43 42 41 39 35 32 30 28 25 24 25 27 28 29 30 32 34 36 39
26 27 29 30 31 31 34 35 38 34 47 59 80 94 89 87 77 63 62 50 48 26 51 43 39 38 41 44 43 45 36 52 48 42 44 43 42 42 40 40 36 33 32 29 29 29 31 33 35 36 38 41 42 43
28 25 23 26 27 31 33 35 34 41 54 68 92 92 89 80 77 61 59 50 53 43 38 60 45 34 40 42 45 44 49 28 47 42 43 45 42 42 42 42 39 37 35 33 33 33 35 37 39 40 43 43 45 46
51 47 41 36 35 34 36 39 41 49 64 83 88 87 82 75 74 70 64 43 39 40 32 34 35 32 32 40 44 46 52 53 40 46 48 44 43 42 43 44 41 39 37 37 38 38 39 40 42 45 46 47 48 48
52 50 47 46 46 47 45 45 52 64 77 90 84 75 78 58 56 57 63 66 43 28 26 30 41 48 40 40 51 50 49 41 43 46 50 48 44 45 46 46 44 40 40 41 42 41 42 43 45 46 47 47 48 49
46 49 58 54 55 56 58 63 68 73 85 80 78 70 72 66 47 39 38 55 59 33 20 17 22 29 37 39 45 46 47 48 44 39 51 51 49 49 48 45 41 42 43 44 43 44 45 46 46 47 47 48 50 50
40 41 41 46 55 56 58 60 67 71 75 75 73 64 60 62 35 37 48 51 47 50 43 31 27 27 28 34 39 43 45 45 44 41 44 47 49 48 47 44 44 45 45 44 44 46 46 47 48 47 49 49 50 51
44 44 38 42 47 48 47 53 54 62 66 59 58 71 48 44 45 47 41 40 38 40 36 34 32 31 33 30 38 39 39 41 39 39 40 42 44 43 44 44 44 44 45 46 46 47 48 48 46 48 49 50 51 51
34 38 36 36 37 37 41 41 49 61 54 62 66 65 51 38 32 44 25 30 33 31 37 35 31 31 17 20 33 38 39 38 40 39 39 41 40 39 40 41 41 43 45 47 46 46 47 47 47 48 49 50 51 50
27 30 29 34 36 37 45 40 41 45 48 48 47 48 41 31 40 36 38 27 27 27 26 29 30 33 29 25 31 38 38 37 38 38 39 38 36 36 38 41 42 41 41 42 43 45 45 47 47 48 48 47 48 50
25 22 23 26 29 32 33 35 34 33 34 40 37 37 45 34 32 36 27 23 20 22 23 21 21 20 24 33 30 39 39 39 39 36 37 36 37 34 33 33 34 37 39 41 43 46 47 48 47 45 46 48 52 54
24 22 21 25 22 22 22 23 26 28 32 38 38 41 37 37 28 27 22 22 21 19 21 20 17 18 22 25 26 28 36 41 37 27 25 28 27 28 29 32 34 37 41 45 46 46 44 42 43 47 50 53 56 55
16 20 33 22 18 16 18 16 19 20 23 29 30 35 38 39 35 30 28 27 25 23 22 20 19 20 21 23 23 23 24 22 22 22 22 23 25 29 33 36 40 44 45 44 41 39 41 45 48 52 55 56 54 53
4 10 22 25 20 17 16 15 17 17 18 25 28 27 27 29 28 29 24 25 23 26 23 25 24 22 24 25 23 22 21 24 23 23 27 29 32 37 41 43 43 39 37 38 40 43 47 50 53 56 55 54 53 55
4 7 8 12 19 23 22 20 22 16 16 12 17 21 25 28 27 27 28 23 23 22 25 26 23 23 23 22 23 25 25 27 29 32 34 36 39 39 38 36 36 38 40 42 45 49 52 55 55 53 53 54 56 59
8 7 8 10 12 19 21 18 21 23 19 16 17 23 17 16 15 18 19 19 18 20 21 22 23 24 26 26 28 31 33 35 36 37 38 38 38 38 38 39 40 42 45 48 51 54 53 52 52 54 56 59 61 64
10 10 10 9 13 17 21 23 24 26 28 26 25 26 30 31 26 24 24 23 22 25 32 36 35 33 32 33 34 36 38 39 39 39 38 38 37 40 42 44 46 49 51 51 51 51 52 54 56 58 61 64 66 67
15 14 16 15 17 22 22 22 23 23 24 26 26 26 27 28 28 27 26 26 27 28 31 32 32 33 34 35 37 38 37 37 37 38 40 43 45 46 47 48 48 47 48 50 52 53 55 58 60 63 65 66 66 65
16 16 17 18 19 22 26 23 22 24 25 25 26 27 29 29 29 29 28 28 28 29 31 32 34 35 35 35 36 38 39 40 42 43 45 46 45 44 45 46 48 49 51 53 55 58 61 63 65 66 65 64 62 61
21 22 23 22 20 22 27 28 30 28 28 28 28 28 28 28 27 27 28 29 30 32 33 34 35 37 39 42 44 45 46 48 46 44 42 42 44 46 48 50 52 54 56 59 61 62 63 64 63 61 59 59 59 58
22 21 22 22 24 24 25 30 34 33 32 34 36 36 37 36 36 36 36 37 37 37 38 40 42 44 46 47 47 47 43 42 41 42 44 46 48 50 53 56 58 60 62 63 63 63 62 60 57 56 56 57 59 62
16 17 17 17 17 18 23 26 27 29 30 32 34 37 39 40 39 39 39 41 42 42 42 41 39 38 36 37 37 38 40 43 45 47 50 53 55 58 60 61 62 62 62 59 57 55 54 54 55 57 60 62 64 66
15 16 17 16 15 15 14 14 14 14 14 14 15 17 17 19 22 23 24 26 25 27 28 30 32 34 37 40 42 45 47 50 53 55 57 59 60 61 61 59 56 53 51 51 52 54 56 58 62 65 66 67 68 69
20 21 20 20 20 20 19 18 18 18 19 19 20 21 22 24 25 27 29 31 32 34 36 38 40 43 45 47 50 52 54 56 58 59 59 57 55 53 50 47 47 49 50 54 57 59 61 63 65 67 69 70 71 72
21 22 24 25 26 25 26 26 26 26 26 27 27 28 30 31 32 34 36 38 39 41 42 44 46 48 50 51 52 53 52 49 45 42 42 43 44 44 45 48 52 54 56 58 61 65 67 69 70 71 71 71 72 74
19 20 21 21 23 24 26 27 28 30 30 31 32 32 33 35 35 36 37 38 38 38 37 36 33 32 30 27 27 27 29 32 35 37 40 43 47 50 53 56 59 62 64 66 67 68 69 70 70 72 74 76 77 77
18 20 21 22 23 24 25 25 26 27 28 28 28 28 26 26 24 23 23 23 23 23 24 24 25 27 30 33 35 37 40 42 44 46 49 51 53 56 58 61 62 64 65 66 68 70 72 74 76 76 74 72 69 67
9 10 10 10 11 12 12 12 12 13 13 14 15 15 17 18 19 20 22 24 26 28 30 32 35 37 39 41 43 44 46 47 48 49 50 51 53 55 58 61 64 67 70 71 72 71 70 69 68 67 66 65 63 61
7 9 9 10 11 12 13 14 16 17 18 19 20 22 24 25 26 28 30 32 34 36 38 39 40 41 41 41 40 40 40 42 45 50 55 59 62 63 64 64 64 64 64 64 65 65 64 64 64 64 63 62 60 58
15 16 18 19 20 22 23 24 25 26 28 29 31 32 33 34 34 35 35 35 35 35 34 34 34 33 33 35 39 44 48 52 55 56 56 56 56 57 58 59 60 60 60 61 61 61 60 59 58 56 54 51 49 47

GFSWCAN_500_spd_060.txt.gz
Wind_Speed
26 30 33 40 45 44 42 40 36 40 42 41 39 60 84 94 90 86 77 70 63 59 57 55 56 51 50 46 43 44 46 45 42 43 38 40 40 38 39 37 31 31 30 27 26 25 23 19 22 23 21 22 22 23
25 26 36 40 40 38 35 34 36 44 41 36 48 69 79 93 90 85 76 67 64 59 58 52 53 55 49 44 36 38 43 40 39 39 37 43 46 36 39 39 36 36 31 30 27 25 22 18 14 17 18 19 20 22
25 32 32 32 31 31 29 29 34 39 32 43 65 71 79 89 86 81 74 67 62 58 52 43 41 48 49 48 46 44 43 40 40 36 35 39 40 44 36 39 37 39 36 31 29 27 24 20 18 19 21 22 24 27
21 25 27 27 24 24 28 30 33 41 56 52 60 63 77 86 84 79 71 65 61 60 49 35 30 36 45 44 46 47 43 43 39 40 42 41 33 42 34 36 38 39 40 34 32 29 28 26 24 24 25 27 30 32
22 22 22 23 24 31 40 46 48 49 52 56 51 59 77 87 85 79 74 61 59 56 51 32 31 35 38 44 43 43 43 37 37 43 43 39 36 35 35 41 41 41 40 37 35 34 34 33 31 30 31 34 36 37
26 29 29 35 41 45 44 41 46 44 47 46 46 62 84 86 81 72 56 56 55 49 43 44 34 35 29 34 33 33 31 43 43 45 37 41 45 46 43 41 40 39 40 39 37 37 37 36 34 35 37 39 40 41
26 29 31 32 34 40 40 37 37 36 39 41 52 74 85 82 75 74 61 55 47 39 32 38 44 35 28 33 29 34 39 44 40 38 42 40 40 43 43 42 41 39 40 41 40 39 38 38 39 40 41 42 44 44
20 28 29 32 35 35 34 34 38 38 41 47 63 81 82 79 62 57 51 47 51 39 27 37 40 37 33 32 29 29 32 35 37 39 34 33 45 43 42 45 43 40 39 41 42 42 42 42 43 44 45 46 45 47
38 23 25 33 37 36 37 38 35 40 52 55 71 80 79 77 59 53 37 38 44 34 32 19 39 36 35 23 19 25 25 32 33 33 35 37 38 40 36 45 43 43 41 40 41 41 43 45 46 46 46 47 49 48
49 51 37 34 33 37 40 42 49 57 58 68 79 78 72 70 52 53 48 44 41 34 32 28 20 20 22 21 24 28 33 37 40 41 41 43 38 35 38 42 51 47 44 44 44 44 46 47 46 46 47 48 48 49
43 43 47 46 50 53 59 65 67 65 69 77 77 75 71 52 34 37 36 40 43 36 30 33 18 7 14 19 21 27 32 36 39 44 46 44 44 42 39 39 43 49 45 45 47 47 46 46 47 48 47 47 49 49
47 42 43 51 56 61 62 67 74 76 71 66 63 60 53 35 26 28 31 35 37 38 39 34 29 27 25 27 24 27 30 34 41 40 43 44 41 40 39 39 41 39 40 42 42 43 46 49 48 45 45 47 49 51
42 49 45 45 54 62 61 58 63 69 69 68 65 37 39 28 23 27 22 25 23 24 27 28 28 34 31 24 22 21 26 31 34 38 40 38 36 36 37 37 33 34 37 41 45 47 47 43 43 45 47 49 51 52
37 38 39 43 45 51 50 47 56 57 60 54 41 43 24 36 18 19 25 22 22 24 27 24 21 23 24 25 27 25 24 21 30 34 31 30 29 32 32 32 40 42 44 46 43 39 40 43 44 47 49 50 48 46
26 31 33 41 47 43 35 32 41 44 49 57 41 38 29 19 18 22 29 24 19 16 17 18 19 20 22 20 29 32 31 32 29 33 36 35 34 32 36 37 36 32 29 32 36 39 43 47 49 48 43 43 46 50
18 23 25 27 34 31 25 30 33 36 37 45 45 39 32 27 19 18 16 22 22 18 18 18 18 19 20 20 21 28 30 32 36 39 41 36 30 28 23 23 25 28 32 37 40 45 48 44 41 41 44 47 52 57
17 17 21 20 17 21 22 23 25 27 32 37 35 35 29 26 33 28 23 23 21 22 21 20 19 19 20 20 19 21 23 23 23 25 24 22 20 22 25 29 32 34 38 42 43 40 40 41 43 46 50 54 59 61
12 23 26 27 13 10 13 15 15 17 18 23 26 28 28 25 31 34 34 31 25 21 20 22 23 24 23 24 23 21 21 20 19 21 23 26 28 31 33 36 38 40 39 39 40 41 44 47 50 53 57 60 61 59
7 13 23 28 25 17 17 17 17 15 15 16 18 21 22 21 20 22 23 23 24 23 21 19 22 23 21 20 21 20 21 25 28 29 31 34 36 38 40 41 40 40 40 41 44 47 50 54 57 59 58 57 58 59
8 8 8 11 18 21 26 28 24 23 25 21 19 20 19 19 18 17 18 22 24 25 25 24 24 24 23 25 27 29 31 33 35 37 38 39 40 42 42 41 41 43 46 49 51 54 56 57 56 57 59 60 61 64
8 9 9 9 9 10 17 23 24 23 25 27 26 25 26 24 23 24 26 24 25 27 26 27 28 31 33 35 35 35 36 38 38 39 40 41 41 41 42 45 48 51 53 55 55 54 56 57 58 60 62 65 67 69
11 10 10 11 13 14 15 18 21 21 24 25 28 28 27 27 27 28 29 29 29 29 29 29 32 33 33 34 36 37 38 40 41 41 41 43 46 49 51 53 54 54 52 52 54 55 58 60 62 64 67 68 69 68
16 17 18 16 18 20 21 22 24 24 24 24 26 27 27 28 29 30 30 31 30 30 30 31 32 33 34 35 37 39 42 44 45 47 49 52 53 53 52 50 50 50 53 55 58 61 63 65 67 69 69 68 66 64
17 19 21 24 25 26 26 28 29 30 31 32 31 30 30 30 31 31 31 32 32 32 33 34 36 38 40 41 43 44 47 49 51 53 52 51 48 47 49 51 53 56 59 62 64 67 68 69 69 67 65 63 62 62
14 15 18 19 21 24 28 31 33 34 36 37 37 36 37 39 39 40 40 40 40 40 40 42 42 44 45 47 48 50 49 48 45 44 44 45 48 51 54 57 60 63 66 67 68 67 66 64 62 61 62 61 62 65
14 13 16 17 16 16 17 20 23 25 28 31 35 38 38 37 39 40 40 40 41 40 40 39 38 38 37 37 37 38 40 43 45 48 51 54 57 59 61 63 65 65 64 61 60 60 59 58 58 60 64 66 68 70
19 18 17 18 19 18 18 18 18 19 18 19 20 20 21 23 24 26 25 25 25 27 29 30 32 34 36 39 42 45 47 50 52 54 56 58 58 57 55 53 51 50 50 52 54 57 60 63 65 68 70 73 75 76
24 23 22 22 23 25 25 24 24 24 24 23 24 24 25 26 27 28 29 31 32 34 36 37 39 41 43 45 46 47 49 49 47 45 42 42 43 44 47 49 52 55 57 60 63 66 68 70 72 73 74 75 76 78
23 22 22 23 24 24 26 28 29 29 29 29 29 30 31 32 32 33 34 35 37 37 37 38 37 37 37 36 34 33 34 35 38 40 43 46 49 52 54 57 59 61 62 63 65 66 69 71 74 76 77 76 75 72
16 17 19 21 21 22 23 24 24 25 26 27 28 29 29 29 29 29 28 28 28 27 26 26 27 28 29 31 34 37 39 42 45 47 49 51 52 52 53 54 57 61 66 70 71 72 71 70 70 70 70 70 70 69
11 12 13 14 14 15 16 17 17 18 18 18 18 18 17 18 18 18 20 21 22 23 26 28 31 33 36 39 42 44 45 45 45 44 44 46 50 55 60 63 64 64 65 65 66 66 66 66 66 65 65 64 63 60
4 6 6 7 8 10 11 12 13 14 15 16 17 18 20 21 23 24 26 28 30 31 34 36 38 39 40 39 38 37 36 37 42 47 52 56 57 57 57 57 57 58 59 59 59 59 59 58 57 55 54 53 52 52
12 13 14 15 17 18 19 20 22 23 24 25 27 28 29 30 32 33 34 35 35 35 34 34 33 32 32 31 32 35 40 45 47 47 47 46 45 46 48 49 51 52 53 52 52 50 49 49 48 48 49 50 50 50

GFSWCAN_500_spd_063.txt.gz
Wind_Speed
21 26 31 52 62 60 57 51 47 49 47 44 42 38 37 50 73 91 89 85 79 72 70 66 64 61 53 48 52 48 55 59 53 52 50 48 43 40 36 33 30 28 30 32 32 34 32 27 27 29 25 28 27 27
21 27 37 48 50 50 47 46 46 46 41 41 40 39 36 46 69 87 86 82 78 72 66 63 64 57 48 45 45 44 50 51 50 49 49 42 39 39 34 36 32 31 31 33 34 33 30 26 24 24 23 24 24 23
23 29 33 38 41 43 45 46 42 45 40 36 37 39 36 49 70 82 84 80 75 73 63 61 53 52 48 46 49 49 47 47 46 46 44 43 39 37 33 36 35 32 32 37 36 32 29 28 25 23 23 23 23 24
25 28 34 37 40 43 43 42 42 40 34 33 36 36 35 61 71 81 83 79 75 68 63 59 36 41 46 46 52 52 49 48 44 44 42 40 39 34 35 32 36 37 36 38 36 36 32 33 29 27 26 27 28 29
22 27 32 33 34 36 35 36 35 35 36 36 37 33 51 77 65 81 79 76 75 69 57 50 41 34 37 46 48 48 45 42 43 45 44 44 39 38 36 37 31 40 30 37 33 33 37 35 34 31 31 32 33 34
18 20 23 24 24 27 28 28 30 34 37 36 36 59 61 63 76 78 80 77 67 57 50 43 44 32 35 38 48 45 45 43 41 44 41 44 38 42 41 37 34 33 33 34 35 37 39 39 38 38 37 37 37 38
13 14 16 18 24 28 32 33 30 29 38 58 57 53 50 62 76 80 77 70 69 51 24 49 38 33 34 38 42 44 42 43 44 40 37 38 44 41 35 36 38 39 38 37 40 41 41 40 41 41 41 42 41 41
26 31 37 41 41 46 41 43 44 48 56 60 58 58 58 69 79 78 71 63 62 56 46 43 37 35 36 34 33 39 42 38 37 39 47 36 30 29 39 38 43 44 42 42 40 40 40 42 43 44 44 44 44 45
28 31 37 40 39 39 45 45 46 46 45 40 49 51 65 75 74 63 48 42 45 49 43 40 29 29 34 25 23 35 34 36 34 28 34 33 41 40 37 40 40 44 41 37 38 38 42 45 46 43 41 43 45 46
33 32 30 35 37 37 35 34 36 39 33 37 46 59 68 70 66 52 45 43 40 38 42 23 28 29 33 29 31 31 32 34 38 34 32 31 28 30 25 27 32 36 37 39 44 46 45 40 42 44 44 45 47 48
22 35 35 32 31 33 33 33 34 33 35 44 52 65 70 71 68 51 44 37 40 49 32 18 22 24 31 31 26 26 23 27 29 31 35 35 32 32 36 37 36 37 38 36 37 42 50 54 50 47 48 47 47 48
29 28 27 26 27 27 32 42 50 54 44 54 63 72 60 55 45 36 35 30 44 36 20 21 27 23 18 9 10 12 14 18 26 30 33 37 34 32 33 36 37 38 38 38 39 42 46 45 40 46 43 45 48 50
51 55 57 58 55 56 65 59 49 46 59 64 65 66 52 46 32 24 20 27 36 23 28 35 27 13 9 12 13 16 20 22 25 28 30 28 27 29 31 32 34 37 39 39 38 36 31 43 46 48 49 48 45 45
59 61 53 57 61 52 62 61 57 56 67 65 66 51 33 23 17 15 17 21 17 19 19 21 22 20 16 17 19 20 21 24 23 22 16 17 22 24 27 29 31 32 34 34 34 37 41 47 48 45 40 42 45 49
48 52 57 63 50 46 55 56 57 65 63 50 53 41 37 18 12 17 17 19 16 13 14 15 15 15 16 16 14 18 25 28 30 24 22 22 24 26 28 30 29 30 32 37 43 45 40 34 34 38 43 47 50 48
36 38 41 39 43 45 44 51 49 54 51 17 38 18 29 21 12 15 20 19 15 15 11 9 11 13 14 17 18 19 17 19 26 30 31 28 29 30 31 33 31 35 36 31 27 29 33 37 41 44 46 46 46 47
23 25 26 28 29 25 28 37 42 33 22 34 24 27 26 14 4 10 14 10 10 11 9 10 11 14 16 16 15 17 19 21 23 25 26 26 27 26 25 23 22 24 26 28 33 37 40 43 44 45 46 47 49 52
22 24 22 17 16 20 25 24 22 20 17 24 29 24 17 16 13 13 15 15 13 13 17 20 20 22 22 20 19 19 19 21 23 23 20 18 18 20 23 26 27 30 34 38 41 42 43 45 46 47 48 51 55 59
16 18 20 19 18 18 17 19 19 18 19 21 26 27 23 21 22 22 20 22 26 27 26 26 24 22 23 23 22 22 24 23 22 23 23 25 27 29 31 33 36 39 41 43 44 45 45 47 49 52 56 59 62 65
14 23 23 20 18 16 14 14 18 20 21 20 22 23 26 25 23 23 21 20 20 20 18 22 25 24 22 22 21 21 24 24 25 28 31 33 35 38 40 41 43 44 45 46 47 48 50 53 57 60 62 63 63 64
13 13 20 31 35 30 26 23 23 24 22 21 22 21 21 23 22 22 20 18 17 18 22 24 25 27 26 27 27 28 30 32 34 35 37 38 39 41 42 43 45 46 48 49 52 56 59 61 61 61 61 62 64 66
15 16 16 15 15 16 19 24 28 30 30 27 27 30 29 28 26 24 23 25 26 26 26 26 27 29 30 31 33 34 35 36 37 38 39 40 41 43 46 47 49 51 54 57 59 60 58 58 59 60 63 66 68 71
19 19 18 19 20 20 20 20 20 23 26 27 26 26 28 28 27 27 27 28 28 29 28 29 30 31 32 34 36 37 38 38 39 40 42 44 46 48 51 53 55 57 57 56 56 56 57 60 63 66 68 71 72 73
25 27 27 28 28 27 26 27 26 27 27 27 27 27 27 28 28 28 29 31 32 33 33 33 34 35 36 37 39 40 41 42 43 45 48 50 52 54 54 54 54 54 54 56 58 61 64 67 69 71 71 71 70 69
9 14 21 26 29 31 32 33 34 34 34 33 33 33 33 33 33 33 34 35 36 37 37 38 38 39 40 41 43 44 45 47 48 50 51 51 50 49 50 51 54 56 59 62 65 66 67 67 66 64 63 63 65 67
13 12 11 11 15 22 27 29 31 32 35 38 40 39 39 39 40 40 40 40 40 40 40 41 41 42 43 44 45 46 45 45 45 44 45 46 48 51 54 56 59 60 60 60 59 59 59 60 63 66 68 70 72 73
20 20 20 19 18 17 17 21 24 26 25 26 28 30 33 36 37 37 37 37 38 38 37 37 36 35 34 33 35 36 39 42 44 46 49 51 53 54 53 53 53 54 55 57 59 62 64 66 68 69 70 72 74 77
27 26 26 25 24 23 23 23 23 24 24 25 25 25 25 25 25 26 26 27 27 28 29 31 32 34 36 38 40 42 44 46 47 47 47 47 47 48 49 51 54 56 58 60 61 62 64 67 71 75 78 79 79 78
31 30 30 29 28 27 27 28 29 30 30 30 30 30 30 30 31 31 32 32 33 34 35 36 37 38 39 40 41 41 41 41 40 41 43 45 47 50 52 53 54 54 56 60 65 70 72 72 72 72 72 72 72 71
24 24 24 24 24 25 26 26 27 28 29 30 31 32 32 33 33 33 33 34 34 34 34 34 34 34 33 33 34 35 36 38 41 43 46 47 47 46 46 50 55 59 61 60 59 60 62 64 65 66 66 65 64 62
17 17 19 19 19 20 21 22 22 23 24 24 25 26 25 25 25 25 25 25 25 26 27 27 28 29 31 33 35 38 41 43 43 42 40 40 42 48 52 52 49 47 48 49 51 54 56 57 57 56 55 54 54 54
5 7 8 9 10 11 12 13 14 15 16 17 17 18 19 19 20 21 22 23 25 27 29 31 33 35 37 39 40 40 39 37 35 36 40 44 46 41 38 38 40 42 44 45 47 49 51 51 51 50 49 49 49 49
11 12 13 14 15 16 17 17 18 19 19 20 21 22 24 25 27 28 30 31 33 34 35 36 37 36 35 33 32 30 31 34 37 39 37 31 30 31 32 34 37 39 40 42 44 46 48 48 48 47 46 45 45 45

GFSWCAN_500_spd_066.txt.gz
Wind_Speed
37 2 26 35 36 63 68 63 61 55 49 47 45 49 51 46 43 40 39 64 80 88 87 85 82 75 70 58 52 48 49 55 60 56 54 51 53 52 46 40 35 33 31 31 29 32 29 21 24 26 26 26 26 26
38 21 31 31 39 67 67 60 53 47 44 44 42 47 45 42 36 38 48 68 80 86 87 83 79 73 66 57 52 44 45 52 53 56 53 47 48 47 43 40 36 35 30 29 31 30 27 26 24 27 27 25 24 23
35 25 31 30 46 64 57 53 49 44 43 41 43 43 38 32 32 37 53 65 79 82 81 80 74 70 65 54 52 47 49 56 57 53 50 47 48 47 45 38 33 36 31 31 34 29 26 27 27 30 29 26 26 25
23 37 40 51 58 53 52 50 45 42 41 40 41 38 33 29 26 54 58 68 79 81 72 74 71 61 56 54 48 49 47 53 54 52 50 52 47 46 45 36 36 34 35 31 33 32 28 30 31 35 32 30 30 29
23 25 34 42 45 46 44 41 40 39 40 39 37 33 30 31 33 60 65 69 74 78 71 56 52 49 48 48 48 51 48 53 51 48 45 42 45 49 46 40 37 34 30 27 23 29 36 29 35 35 33 32 35 34
21 23 28 32 35 37 39 39 36 35 37 33 31 31 32 28 41 64 66 65 69 67 65 59 40 38 35 39 50 46 46 48 50 46 45 45 44 44 43 39 35 35 32 29 34 33 34 29 32 36 33 34 37 38
19 23 26 29 31 32 33 34 32 33 31 27 27 31 29 32 52 55 60 64 47 38 45 46 52 33 28 37 46 46 47 48 46 44 46 47 47 43 37 35 35 36 38 34 34 32 35 33 34 37 39 39 40 40
15 15 17 22 26 28 28 30 29 32 27 26 32 30 28 51 60 56 62 66 56 53 35 37 42 42 34 34 36 39 46 48 45 50 42 35 37 40 40 30 34 35 37 37 36 36 39 37 41 41 42 44 43 42
22 21 21 21 23 25 26 28 27 29 31 29 26 40 60 51 42 46 66 74 66 57 46 40 38 46 32 35 31 21 30 43 43 44 41 40 39 39 31 33 33 26 33 39 38 37 43 47 45 41 42 47 42 48
33 33 29 34 31 26 21 25 35 34 36 47 62 46 39 38 38 57 50 55 55 49 42 46 43 44 32 31 29 24 25 33 38 40 40 37 33 28 35 42 39 36 37 37 34 37 42 45 44 42 38 44 51 48
28 29 37 37 41 39 34 40 41 39 42 45 44 41 46 46 44 53 51 52 60 49 30 41 37 31 29 31 31 22 21 30 34 34 33 33 25 23 25 27 32 34 31 26 26 37 41 37 39 42 43 45 48 48
30 26 28 30 31 34 35 32 23 29 40 36 34 37 52 60 48 48 40 45 49 46 40 32 29 26 23 26 27 29 26 33 34 31 33 33 27 24 25 29 34 35 36 38 38 40 41 40 40 40 42 42 37 49
31 32 29 29 27 24 27 41 52 42 43 45 43 47 53 51 43 42 38 34 40 43 35 27 24 29 23 18 29 30 25 22 20 22 24 23 22 24 26 28 32 35 34 34 36 36 36 36 38 40 36 41 47 46
55 59 57 58 61 61 52 45 51 45 36 53 59 56 51 38 36 35 32 26 26 36 32 14 24 26 8 9 9 7 10 16 18 19 18 18 19 21 23 26 26 27 29 28 28 30 31 34 35 36 43 48 48 47
60 55 57 55 47 45 43 53 46 42 50 59 55 48 43 32 30 31 25 19 33 24 24 27 24 9 8 7 6 9 12 15 16 17 17 21 22 18 18 20 21 24 25 27 28 31 33 37 38 45 46 44 39 41
43 49 51 49 44 36 43 41 53 44 60 57 45 31 21 20 18 21 22 22 23 21 21 22 12 8 6 7 7 8 10 11 14 16 16 14 21 26 29 28 26 25 26 30 33 33 39 42 40 40 37 40 44 48
35 31 35 39 35 29 34 42 49 38 37 39 23 16 11 15 24 16 20 23 22 20 16 12 9 8 6 7 9 10 12 15 16 17 19 21 22 24 25 25 26 27 28 27 30 30 30 32 35 39 43 47 49 51
30 25 22 26 30 34 43 30 25 20 28 16 17 12 15 17 15 17 17 14 12 11 10 10 10 9 10 11 14 15 17 18 19 21 21 22 23 23 24 23 22 23 25 27 30 32 35 39 43 46 48 50 52 53
14 16 17 21 18 20 12 29 18 4 3 1 4 8 5 2 3 4 5 8 12 13 13 15 16 17 19 20 19 23 25 26 25 25 28 27 25 26 27 27 28 29 31 34 37 41 44 45 47 49 51 54 56 59
11 11 15 15 14 15 14 13 11 11 9 11 11 12 15 16 16 15 15 15 18 18 22 24 24 25 23 21 20 22 25 28 30 30 28 28 29 29 32 34 36 37 39 42 44 45 47 49 52 54 57 59 62 65
17 18 18 19 19 17 13 14 14 15 16 16 15 16 17 17 15 15 15 16 18 18 19 21 21 19 20 24 25 26 27 28 29 30 31 34 36 38 38 39 40 42 44 45 47 50 52 55 57 60 63 66 67 68
17 17 22 27 26 23 22 22 21 21 19 18 18 18 19 19 19 18 18 18 19 19 19 19 20 20 22 25 26 27 29 31 33 35 36 37 38 39 41 42 44 46 48 50 53 55 58 61 63 65 66 66 67 68
21 21 21 21 21 24 23 25 27 26 24 25 25 25 25 23 22 25 26 25 25 24 24 26 28 29 29 29 29 31 31 32 34 35 37 39 40 42 44 46 48 50 53 56 58 60 61 62 62 63 65 68 71 73
25 24 25 26 26 26 25 24 23 22 22 21 21 21 21 21 22 23 24 24 24 26 27 28 28 29 30 31 33 35 36 38 39 40 41 42 44 45 48 51 54 56 57 58 58 58 60 62 64 67 69 71 71 72
17 22 27 30 31 30 31 31 30 30 29 28 28 28 27 27 27 27 27 28 29 31 32 34 35 36 36 37 38 38 39 40 41 43 44 47 49 51 52 53 53 53 53 57 59 62 64 66 67 67 68 70 71 73
11 12 15 18 20 25 31 32 34 35 36 37 36 35 35 35 35 35 34 34 34 35 35 36 36 36 36 37 38 39 41 43 45 46 47 47 47 47 48 50 52 55 57 59 60 61 62 63 65 67 69 70 72 74
22 19 16 16 17 19 20 21 24 28 31 31 32 34 37 38 38 37 37 37 37 37 37 37 37 37 37 38 39 40 40 39 39 40 41 43 46 49 51 53 54 54 55 56 58 61 62 63 64 66 69 71 70 70
27 27 28 28 27 26 25 26 26 26 26 26 27 28 27 29 28 30 32 33 34 34 33 33 33 33 33 33 34 35 37 40 42 44 45 47 47 48 49 50 52 54 56 56 56 56 60 62 61 60 61 63 66 68
35 35 34 35 34 32 31 30 29 29 29 30 30 30 30 30 29 29 29 29 29 30 30 31 32 34 35 36 37 39 40 41 41 42 43 44 45 47 49 51 51 50 50 53 55 53 51 53 55 56 57 59 61 63
35 34 33 34 34 33 32 31 31 31 31 32 32 33 34 35 35 35 35 35 35 36 36 36 36 36 37 37 36 37 37 38 39 40 42 44 46 47 46 44 44 48 47 44 44 45 45 45 47 49 52 54 56 59
24 24 24 24 25 24 25 25 26 26 27 27 28 29 29 30 31 31 32 33 33 33 32 32 32 32 32 33 34 35 37 38 41 42 43 42 40 39 41 44 40 37 36 36 37 39 41 44 46 49 53 55 56 58
9 11 13 13 14 15 16 17 18 20 20 22 22 23 23 23 23 24 24 25 26 26 27 28 29 30 32 34 37 39 40 40 39 37 34 35 37 39 35 31 31 32 34 37 38 40 41 43 46 49 52 55 56 57
12 12 13 14 14 15 15 15 16 16 17 17 18 19 20 21 22 23 24 25 27 28 30 32 34 36 37 37 37 35 33 30 30 32 34 34 29 26 26 28 31 32 32 34 36 39 41 42 45 48 51 54 56 57